Wetterdaten: Dienstag, 12.09.2017
Datum Zeit Temp. A. Pool Temp. Feuchte A. Luftdruck Regen Wind Richtung Richtung Sonnenschein ET UV Solar Taupunkt Windchill Windben Empfang
12.09.2017 00:00 13,7 C 18,3 C 85 % 1006,7 hPa 0,0 l/m 9,7 km/h (2 Bft) W-SW 247 0 min 0,025 mm 0,0 UV-I 0 W/m 11,2 C 11,8 C 14,5 km/h (3 Bft) 100,00 %
12.09.2017 00:05 13,6 C 18,3 C 85 % 1006,7 hPa 0,0 l/m 9,7 km/h (2 Bft) W-SW 247 0 min 0,000 mm 0,0 UV-I 0 W/m 11,1 C 11,7 C 12,9 km/h (3 Bft) 50,88 %
12.09.2017 00:10 13,6 C 18,3 C 85 % 1006,7 hPa 0,0 l/m 8,0 km/h (2 Bft) W-SW 247 0 min 0,000 mm 0,0 UV-I 0 W/m 11,1 C 12,6 C 12,9 km/h (3 Bft) 100,00 %
12.09.2017 00:15 13,6 C 18,3 C 85 % 1006,9 hPa 0,0 l/m 8,0 km/h (2 Bft) W-SW 247 0 min 0,000 mm 0,0 UV-I 0 W/m 11,1 C 12,6 C 12,9 km/h (3 Bft) 100,00 %
12.09.2017 00:20 13,6 C 18,3 C 85 % 1007,0 hPa 0,0 l/m 6,4 km/h (2 Bft) W-SW 247 0 min 0,000 mm 0,0 UV-I 0 W/m 11,1 C 13,6 C 11,3 km/h (2 Bft) 99,12 %
12.09.2017 00:25 13,6 C 18,3 C 85 % 1006,9 hPa 0,2 l/m 4,8 km/h (1 Bft) W 270 0 min 0,000 mm 0,0 UV-I 0 W/m 11,1 C 13,6 C 11,3 km/h (2 Bft) 100,00 %
12.09.2017 00:30 13,6 C 18,3 C 86 % 1007,0 hPa 0,0 l/m 3,2 km/h (1 Bft) W 270 0 min 0,000 mm 0,0 UV-I 0 W/m 11,3 C 13,6 C 6,4 km/h (2 Bft) 100,00 %
12.09.2017 00:35 13,5 C 18,3 C 86 % 1007,0 hPa 0,0 l/m 3,2 km/h (1 Bft) W-SW 247 0 min 0,000 mm 0,0 UV-I 0 W/m 11,2 C 13,5 C 6,4 km/h (2 Bft) 100,00 %
12.09.2017 00:40 13,4 C 18,3 C 86 % 1007,0 hPa 0,0 l/m 3,2 km/h (1 Bft) S-SW 202 0 min 0,000 mm 0,0 UV-I 0 W/m 11,1 C 13,4 C 6,4 km/h (2 Bft) 99,12 %
12.09.2017 00:45 13,3 C 18,3 C 86 % 1007,0 hPa 0,0 l/m 1,6 km/h (1 Bft) W-SW 247 0 min 0,000 mm 0,0 UV-I 0 W/m 11,0 C 13,3 C 4,8 km/h (1 Bft) 98,25 %
12.09.2017 00:50 13,4 C 18,3 C 87 % 1007,0 hPa 0,0 l/m 1,6 km/h (1 Bft) W-SW 247 0 min 0,000 mm 0,0 UV-I 0 W/m 11,3 C 13,4 C 3,2 km/h (1 Bft) 97,37 %
12.09.2017 00:55 13,3 C 18,3 C 89 % 1007,0 hPa 0,0 l/m 1,6 km/h (1 Bft) W-SW 247 0 min 0,000 mm 0,0 UV-I 0 W/m 11,5 C 13,3 C 3,2 km/h (1 Bft) 94,74 %
12.09.2017 01:00 13,2 C 18,3 C 89 % 1007,0 hPa 0,0 l/m 0,0 km/h (0 Bft) W-SW 247 0 min 0,000 mm 0,0 UV-I 0 W/m 11,4 C 13,2 C 1,6 km/h (1 Bft) 95,61 %
12.09.2017 01:05 13,2 C 18,3 C 90 % 1007,0 hPa 0,0 l/m 1,6 km/h (1 Bft) W-SW 247 0 min 0,000 mm 0,0 UV-I 0 W/m 11,6 C 13,2 C 3,2 km/h (1 Bft) 95,61 %
12.09.2017 01:10 13,1 C 18,3 C 90 % 1007,1 hPa 0,0 l/m 3,2 km/h (1 Bft) W-SW 247 0 min 0,000 mm 0,0 UV-I 0 W/m 11,5 C 13,1 C 6,4 km/h (2 Bft) 96,49 %
12.09.2017 01:15 13,0 C 18,3 C 89 % 1007,1 hPa 0,0 l/m 4,8 km/h (1 Bft) W-SW 247 0 min 0,000 mm 0,0 UV-I 0 W/m 11,2 C 13,0 C 6,4 km/h (2 Bft) 99,12 %
12.09.2017 01:20 13,0 C 18,3 C 88 % 1007,1 hPa 0,0 l/m 3,2 km/h (1 Bft) SW 225 0 min 0,000 mm 0,0 UV-I 0 W/m 11,1 C 13,0 C 6,4 km/h (2 Bft) 96,49 %
12.09.2017 01:25 13,1 C 18,3 C 88 % 1007,1 hPa 0,0 l/m 4,8 km/h (1 Bft) SW 225 0 min 0,000 mm 0,0 UV-I 0 W/m 11,2 C 13,1 C 6,4 km/h (2 Bft) 98,25 %
12.09.2017 01:30 13,1 C 17,8 C 88 % 1007,1 hPa 0,0 l/m 3,2 km/h (1 Bft) SW 225 0 min 0,000 mm 0,0 UV-I 0 W/m 11,2 C 13,1 C 6,4 km/h (2 Bft) 99,12 %
12.09.2017 01:35 13,1 C 18,3 C 88 % 1007,1 hPa 0,0 l/m 3,2 km/h (1 Bft) SW 225 0 min 0,000 mm 0,0 UV-I 0 W/m 11,2 C 13,1 C 4,8 km/h (1 Bft) 100,00 %
12.09.2017 01:40 13,0 C 18,3 C 88 % 1007,0 hPa 0,0 l/m 3,2 km/h (1 Bft) SW 225 0 min 0,000 mm 0,0 UV-I 0 W/m 11,1 C 13,0 C 4,8 km/h (1 Bft) 99,12 %
12.09.2017 01:45 12,9 C 17,8 C 88 % 1007,0 hPa 0,0 l/m 3,2 km/h (1 Bft) SW 225 0 min 0,000 mm 0,0 UV-I 0 W/m 11,0 C 12,9 C 4,8 km/h (1 Bft) 100,00 %
12.09.2017 01:50 12,9 C 18,3 C 89 % 1007,0 hPa 0,0 l/m 4,8 km/h (1 Bft) SW 225 0 min 0,000 mm 0,0 UV-I 0 W/m 11,1 C 12,9 C 6,4 km/h (2 Bft) 100,00 %
12.09.2017 01:55 12,8 C 18,3 C 89 % 1007,0 hPa 0,0 l/m 3,2 km/h (1 Bft) SW 225 0 min 0,000 mm 0,0 UV-I 0 W/m 11,0 C 12,8 C 4,8 km/h (1 Bft) 100,00 %
12.09.2017 02:00 12,8 C 17,8 C 90 % 1007,0 hPa 0,0 l/m 3,2 km/h (1 Bft) S-SW 202 0 min 0,000 mm 0,0 UV-I 0 W/m 11,2 C 12,8 C 6,4 km/h (2 Bft) 99,12 %
12.09.2017 02:05 12,7 C 17,8 C 90 % 1007,0 hPa 0,0 l/m 3,2 km/h (1 Bft) S-SW 202 0 min 0,000 mm 0,0 UV-I 0 W/m 11,1 C 12,7 C 6,4 km/h (2 Bft) 100,00 %
12.09.2017 02:10 12,7 C 17,8 C 90 % 1007,0 hPa 0,0 l/m 1,6 km/h (1 Bft) S 180 0 min 0,000 mm 0,0 UV-I 0 W/m 11,1 C 12,7 C 4,8 km/h (1 Bft) 97,37 %
12.09.2017 02:15 12,7 C 17,8 C 90 % 1006,9 hPa 0,0 l/m 3,2 km/h (1 Bft) S-SW 202 0 min 0,000 mm 0,0 UV-I 0 W/m 11,1 C 12,7 C 6,4 km/h (2 Bft) 97,37 %
12.09.2017 02:20 12,7 C 17,8 C 89 % 1006,8 hPa 0,0 l/m 3,2 km/h (1 Bft) S-SW 202 0 min 0,000 mm 0,0 UV-I 0 W/m 10,9 C 12,7 C 4,8 km/h (1 Bft) 98,25 %
12.09.2017 02:25 12,7 C 17,8 C 89 % 1006,8 hPa 0,0 l/m 3,2 km/h (1 Bft) SW 225 0 min 0,000 mm 0,0 UV-I 0 W/m 10,9 C 12,7 C 6,4 km/h (2 Bft) 99,12 %
12.09.2017 02:30 12,7 C 17,8 C 90 % 1006,9 hPa 0,0 l/m 4,8 km/h (1 Bft) S-SW 202 0 min 0,000 mm 0,0 UV-I 0 W/m 11,1 C 12,7 C 9,7 km/h (2 Bft) 100,00 %
12.09.2017 02:35 12,7 C 17,8 C 89 % 1006,9 hPa 0,0 l/m 4,8 km/h (1 Bft) S-SW 202 0 min 0,000 mm 0,0 UV-I 0 W/m 10,9 C 12,7 C 8,0 km/h (2 Bft) 100,00 %
12.09.2017 02:40 12,7 C 17,8 C 89 % 1006,9 hPa 0,0 l/m 3,2 km/h (1 Bft) S-SW 202 0 min 0,000 mm 0,0 UV-I 0 W/m 10,9 C 12,7 C 8,0 km/h (2 Bft) 100,00 %
12.09.2017 02:45 12,7 C 17,8 C 89 % 1006,9 hPa 0,0 l/m 4,8 km/h (1 Bft) S-SW 202 0 min 0,000 mm 0,0 UV-I 0 W/m 10,9 C 12,7 C 8,0 km/h (2 Bft) 99,12 %
12.09.2017 02:50 12,7 C 17,8 C 89 % 1006,9 hPa 0,0 l/m 4,8 km/h (1 Bft) SW 225 0 min 0,000 mm 0,0 UV-I 0 W/m 10,9 C 12,7 C 9,7 km/h (2 Bft) 100,00 %
12.09.2017 02:55 12,7 C 17,8 C 89 % 1006,9 hPa 0,0 l/m 6,4 km/h (2 Bft) SW 225 0 min 0,000 mm 0,0 UV-I 0 W/m 10,9 C 12,7 C 8,0 km/h (2 Bft) 97,37 %
12.09.2017 03:00 12,7 C 17,8 C 88 % 1006,9 hPa 0,0 l/m 6,4 km/h (2 Bft) SW 225 0 min 0,000 mm 0,0 UV-I 0 W/m 10,8 C 12,7 C 9,7 km/h (2 Bft) 98,25 %
12.09.2017 03:05 12,7 C 17,8 C 88 % 1006,9 hPa 0,0 l/m 6,4 km/h (2 Bft) SW 225 0 min 0,000 mm 0,0 UV-I 0 W/m 10,8 C 12,7 C 9,7 km/h (2 Bft) 97,37 %
12.09.2017 03:10 12,7 C 17,8 C 88 % 1006,9 hPa 0,0 l/m 4,8 km/h (1 Bft) SW 225 0 min 0,000 mm 0,0 UV-I 0 W/m 10,8 C 12,7 C 8,0 km/h (2 Bft) 97,37 %
12.09.2017 03:15 12,7 C 17,8 C 88 % 1006,8 hPa 0,0 l/m 6,4 km/h (2 Bft) SW 225 0 min 0,000 mm 0,0 UV-I 0 W/m 10,8 C 12,7 C 11,3 km/h (2 Bft) 99,12 %
12.09.2017 03:20 12,7 C 17,8 C 88 % 1006,8 hPa 0,0 l/m 6,4 km/h (2 Bft) SW 225 0 min 0,000 mm 0,0 UV-I 0 W/m 10,8 C 12,7 C 8,0 km/h (2 Bft) 97,37 %
12.09.2017 03:25 12,7 C 17,8 C 87 % 1006,8 hPa 0,0 l/m 6,4 km/h (2 Bft) SW 225 0 min 0,000 mm 0,0 UV-I 0 W/m 10,6 C 12,7 C 9,7 km/h (2 Bft) 95,61 %
12.09.2017 03:30 12,7 C 17,8 C 87 % 1006,8 hPa 0,0 l/m 6,4 km/h (2 Bft) SW 225 0 min 0,000 mm 0,0 UV-I 0 W/m 10,6 C 12,7 C 9,7 km/h (2 Bft) 97,37 %
12.09.2017 03:35 12,7 C 17,8 C 87 % 1006,8 hPa 0,0 l/m 6,4 km/h (2 Bft) SW 225 0 min 0,000 mm 0,0 UV-I 0 W/m 10,6 C 12,7 C 11,3 km/h (2 Bft) 97,37 %
12.09.2017 03:40 12,6 C 17,8 C 87 % 1006,7 hPa 0,0 l/m 8,0 km/h (2 Bft) SW 225 0 min 0,000 mm 0,0 UV-I 0 W/m 10,5 C 11,6 C 11,3 km/h (2 Bft) 96,49 %
12.09.2017 03:45 12,6 C 17,8 C 87 % 1006,8 hPa 0,0 l/m 6,4 km/h (2 Bft) SW 225 0 min 0,000 mm 0,0 UV-I 0 W/m 10,5 C 12,6 C 12,9 km/h (3 Bft) 98,25 %
12.09.2017 03:50 12,6 C 17,8 C 87 % 1006,8 hPa 0,0 l/m 6,4 km/h (2 Bft) SW 225 0 min 0,000 mm 0,0 UV-I 0 W/m 10,5 C 12,6 C 9,7 km/h (2 Bft) 100,00 %
12.09.2017 03:55 12,6 C 17,8 C 86 % 1006,8 hPa 0,0 l/m 6,4 km/h (2 Bft) S-SW 202 0 min 0,000 mm 0,0 UV-I 0 W/m 10,3 C 12,6 C 9,7 km/h (2 Bft) 100,00 %
12.09.2017 04:00 12,5 C 17,8 C 86 % 1006,8 hPa 0,0 l/m 4,8 km/h (1 Bft) S-SW 202 0 min 0,000 mm 0,0 UV-I 0 W/m 10,2 C 12,5 C 8,0 km/h (2 Bft) 100,00 %
12.09.2017 04:05 12,5 C 17,8 C 86 % 1006,8 hPa 0,0 l/m 6,4 km/h (2 Bft) SW 225 0 min 0,000 mm 0,0 UV-I 0 W/m 10,2 C 12,5 C 9,7 km/h (2 Bft) 100,00 %
12.09.2017 04:10 12,5 C 17,8 C 86 % 1006,8 hPa 0,0 l/m 6,4 km/h (2 Bft) SW 225 0 min 0,000 mm 0,0 UV-I 0 W/m 10,2 C 12,5 C 9,7 km/h (2 Bft) 100,00 %
12.09.2017 04:15 12,4 C 17,8 C 86 % 1006,8 hPa 0,0 l/m 8,0 km/h (2 Bft) SW 225 0 min 0,000 mm 0,0 UV-I 0 W/m 10,1 C 11,4 C 14,5 km/h (3 Bft) 100,00 %
12.09.2017 04:20 12,4 C 17,8 C 86 % 1006,8 hPa 0,0 l/m 8,0 km/h (2 Bft) SW 225 0 min 0,000 mm 0,0 UV-I 0 W/m 10,1 C 11,4 C 14,5 km/h (3 Bft) 100,00 %
12.09.2017 04:25 12,4 C 17,8 C 87 % 1006,8 hPa 0,0 l/m 8,0 km/h (2 Bft) SW 225 0 min 0,000 mm 0,0 UV-I 0 W/m 10,3 C 11,4 C 11,3 km/h (2 Bft) 100,00 %
12.09.2017 04:30 12,3 C 17,8 C 86 % 1006,8 hPa 0,0 l/m 6,4 km/h (2 Bft) SW 225 0 min 0,000 mm 0,0 UV-I 0 W/m 10,0 C 12,3 C 9,7 km/h (2 Bft) 71,05 %
12.09.2017 04:34 12,3 C 17,8 C 86 % 1006,8 hPa 0,0 l/m 8,3 km/h (2 Bft) W-SW 248 0 min 0,000 mm 0,0 UV-I 0 W/m 10,0 C 11,1 C 9,7 km/h (2 Bft) 93,18 %
12.09.2017 04:36 12,3 C 17,8 C 86 % 1006,8 hPa 0,0 l/m 7,8 km/h (2 Bft) SW 218 0 min 0,000 mm 0,0 UV-I 0 W/m 10,0 C 11,4 C 11,3 km/h (2 Bft) 96,23 %
12.09.2017 04:38 12,3 C 17,8 C 86 % 1006,8 hPa 0,0 l/m 9,5 km/h (2 Bft) SW 232 0 min 0,000 mm 0,0 UV-I 0 W/m 10,0 C 10,4 C 14,5 km/h (3 Bft) 92,68 %
12.09.2017 04:40 12,3 C 17,8 C 86 % 1006,7 hPa 0,0 l/m 7,4 km/h (2 Bft) W-SW 249 0 min 0,000 mm 0,0 UV-I 0 W/m 10,0 C 11,6 C 11,3 km/h (2 Bft) 94,12 %
12.09.2017 04:42 12,3 C 17,8 C 86 % 1006,7 hPa 0,0 l/m 8,5 km/h (2 Bft) SW 225 0 min 0,000 mm 0,0 UV-I 0 W/m 10,0 C 11,0 C 12,9 km/h (3 Bft) 95,45 %
12.09.2017 04:44 12,3 C 17,8 C 86 % 1006,7 hPa 0,0 l/m 8,5 km/h (2 Bft) W-SW 238 0 min 0,000 mm 0,0 UV-I 0 W/m 10,0 C 11,0 C 12,9 km/h (3 Bft) 95,45 %
12.09.2017 04:46 12,3 C 17,8 C 86 % 1006,7 hPa 0,0 l/m 9,5 km/h (2 Bft) SW 232 0 min 0,000 mm 0,0 UV-I 0 W/m 10,0 C 10,4 C 14,5 km/h (3 Bft) 93,62 %
12.09.2017 04:48 12,3 C 17,8 C 86 % 1006,8 hPa 0,0 l/m 9,0 km/h (2 Bft) W-SW 242 0 min 0,000 mm 0,0 UV-I 0 W/m 10,0 C 10,7 C 14,5 km/h (3 Bft) 96,23 %
12.09.2017 04:50 12,3 C 17,8 C 86 % 1006,8 hPa 0,0 l/m 9,1 km/h (2 Bft) W-SW 245 0 min 0,000 mm 0,0 UV-I 0 W/m 10,0 C 10,6 C 14,5 km/h (3 Bft) 94,87 %
12.09.2017 04:52 12,3 C 17,8 C 85 % 1006,8 hPa 0,0 l/m 8,0 km/h (2 Bft) W-SW 238 0 min 0,000 mm 0,0 UV-I 0 W/m 9,9 C 11,3 C 11,3 km/h (2 Bft) 95,45 %
12.09.2017 04:54 12,3 C 17,8 C 85 % 1006,7 hPa 0,0 l/m 9,5 km/h (2 Bft) W-SW 248 0 min 0,000 mm 0,0 UV-I 0 W/m 9,9 C 10,4 C 12,9 km/h (3 Bft) 94,34 %
12.09.2017 04:56 12,3 C 17,8 C 85 % 1006,8 hPa 0,0 l/m 9,8 km/h (2 Bft) W-SW 246 0 min 0,000 mm 0,0 UV-I 0 W/m 9,9 C 10,2 C 14,5 km/h (3 Bft) 94,55 %
12.09.2017 04:58 12,3 C 17,8 C 85 % 1006,7 hPa 0,0 l/m 9,3 km/h (2 Bft) SW 217 0 min 0,000 mm 0,0 UV-I 0 W/m 9,9 C 10,5 C 17,7 km/h (3 Bft) 97,44 %
12.09.2017 05:00 12,3 C 17,8 C 85 % 1006,8 hPa 0,0 l/m 9,5 km/h (2 Bft) W 261 0 min 0,000 mm 0,0 UV-I 0 W/m 9,9 C 10,4 C 12,9 km/h (3 Bft) 98,00 %
12.09.2017 05:02 12,4 C 17,8 C 85 % 1006,7 hPa 0,0 l/m 10,8 km/h (2 Bft) W-SW 252 0 min 0,000 mm 0,0 UV-I 0 W/m 9,9 C 9,8 C 16,1 km/h (3 Bft) 98,00 %
12.09.2017 05:04 12,4 C 17,8 C 85 % 1006,8 hPa 0,0 l/m 8,9 km/h (2 Bft) W 272 0 min 0,000 mm 0,0 UV-I 0 W/m 9,9 C 10,8 C 12,9 km/h (3 Bft) 97,56 %
12.09.2017 05:06 12,4 C 17,8 C 85 % 1006,8 hPa 0,0 l/m 8,1 km/h (2 Bft) W-SW 254 0 min 0,000 mm 0,0 UV-I 0 W/m 9,9 C 11,3 C 12,9 km/h (3 Bft) 98,11 %
12.09.2017 05:08 12,4 C 17,8 C 84 % 1006,8 hPa 0,0 l/m 6,9 km/h (2 Bft) SW 236 0 min 0,000 mm 0,0 UV-I 0 W/m 9,8 C 12,1 C 14,5 km/h (3 Bft) 97,37 %
12.09.2017 05:10 12,4 C 17,8 C 84 % 1006,8 hPa 0,0 l/m 8,1 km/h (2 Bft) W-SW 251 0 min 0,000 mm 0,0 UV-I 0 W/m 9,8 C 11,3 C 11,3 km/h (2 Bft) 98,11 %
12.09.2017 05:12 12,4 C 17,8 C 84 % 1006,7 hPa 0,0 l/m 9,2 km/h (2 Bft) SW 230 0 min 0,000 mm 0,0 UV-I 0 W/m 9,8 C 10,7 C 14,5 km/h (3 Bft) 95,12 %
12.09.2017 05:14 12,4 C 17,8 C 84 % 1006,7 hPa 0,0 l/m 8,5 km/h (2 Bft) W-SW 244 0 min 0,000 mm 0,0 UV-I 0 W/m 9,8 C 11,1 C 14,5 km/h (3 Bft) 98,00 %
12.09.2017 05:16 12,5 C 17,8 C 84 % 1006,7 hPa 0,0 l/m 7,9 km/h (2 Bft) W-SW 250 0 min 0,000 mm 0,0 UV-I 0 W/m 9,9 C 11,5 C 12,9 km/h (3 Bft) 98,00 %
12.09.2017 05:18 12,5 C 17,8 C 84 % 1006,7 hPa 0,0 l/m 7,2 km/h (2 Bft) W-SW 248 0 min 0,000 mm 0,0 UV-I 0 W/m 9,9 C 12,0 C 14,5 km/h (3 Bft) 100,00 %
12.09.2017 05:20 12,4 C 17,8 C 84 % 1006,7 hPa 0,0 l/m 8,1 km/h (2 Bft) W-SW 257 0 min 0,000 mm 0,0 UV-I 0 W/m 9,8 C 11,3 C 14,5 km/h (3 Bft) 100,00 %
12.09.2017 05:22 12,5 C 17,8 C 84 % 1006,8 hPa 0,0 l/m 8,5 km/h (2 Bft) W-SW 248 0 min 0,000 mm 0,0 UV-I 0 W/m 9,9 C 11,2 C 12,9 km/h (3 Bft) 100,00 %
12.09.2017 05:24 12,4 C 17,8 C 84 % 1006,8 hPa 0,0 l/m 8,6 km/h (2 Bft) S-SW 207 0 min 0,000 mm 0,0 UV-I 0 W/m 9,8 C 11,0 C 12,9 km/h (3 Bft) 97,56 %
12.09.2017 05:26 12,4 C 17,8 C 84 % 1006,9 hPa 0,0 l/m 10,2 km/h (2 Bft) SW 223 0 min 0,000 mm 0,0 UV-I 0 W/m 9,8 C 10,1 C 16,1 km/h (3 Bft) 100,00 %
12.09.2017 05:28 12,5 C 17,8 C 84 % 1006,9 hPa 0,0 l/m 7,4 km/h (2 Bft) W 275 0 min 0,000 mm 0,0 UV-I 0 W/m 9,9 C 11,9 C 12,9 km/h (3 Bft) 97,37 %
12.09.2017 05:30 12,5 C 17,8 C 84 % 1006,8 hPa 0,0 l/m 10,6 km/h (2 Bft) SW 236 0 min 0,000 mm 0,0 UV-I 0 W/m 9,9 C 10,1 C 16,1 km/h (3 Bft) 97,92 %
12.09.2017 05:32 12,5 C 17,8 C 84 % 1006,8 hPa 0,0 l/m 10,2 km/h (2 Bft) SW 221 0 min 0,000 mm 0,0 UV-I 0 W/m 9,9 C 10,3 C 14,5 km/h (3 Bft) 100,00 %
12.09.2017 05:34 12,5 C 17,8 C 84 % 1006,8 hPa 0,0 l/m 9,4 km/h (2 Bft) SW 234 0 min 0,000 mm 0,0 UV-I 0 W/m 9,9 C 10,7 C 14,5 km/h (3 Bft) 100,00 %
12.09.2017 05:36 12,5 C 17,8 C 84 % 1006,8 hPa 0,0 l/m 8,2 km/h (2 Bft) W-SW 242 0 min 0,000 mm 0,0 UV-I 0 W/m 9,9 C 11,4 C 12,9 km/h (3 Bft) 100,00 %
12.09.2017 05:38 12,4 C 17,8 C 84 % 1006,9 hPa 0,0 l/m 9,8 km/h (2 Bft) SW 228 0 min 0,000 mm 0,0 UV-I 0 W/m 9,8 C 10,4 C 16,1 km/h (3 Bft) 100,00 %
12.09.2017 05:40 12,4 C 17,8 C 84 % 1006,9 hPa 0,0 l/m 7,5 km/h (2 Bft) W-SW 238 0 min 0,000 mm 0,0 UV-I 0 W/m 9,8 C 11,7 C 12,9 km/h (3 Bft) 100,00 %
12.09.2017 05:42 12,4 C 17,8 C 84 % 1006,9 hPa 0,0 l/m 7,2 km/h (2 Bft) W-SW 238 0 min 0,000 mm 0,0 UV-I 0 W/m 9,8 C 11,9 C 12,9 km/h (3 Bft) 100,00 %
12.09.2017 05:44 12,4 C 17,8 C 84 % 1006,9 hPa 0,0 l/m 8,8 km/h (2 Bft) W-SW 240 0 min 0,000 mm 0,0 UV-I 0 W/m 9,8 C 10,9 C 12,9 km/h (3 Bft) 97,87 %
12.09.2017 05:46 12,4 C 17,8 C 84 % 1006,8 hPa 0,0 l/m 9,2 km/h (2 Bft) SW 224 0 min 0,000 mm 0,0 UV-I 0 W/m 9,8 C 10,7 C 14,5 km/h (3 Bft) 100,00 %
12.09.2017 05:48 12,4 C 17,8 C 84 % 1006,8 hPa 0,0 l/m 8,3 km/h (2 Bft) S-SW 212 0 min 0,000 mm 0,0 UV-I 0 W/m 9,8 C 11,2 C 14,5 km/h (3 Bft) 100,00 %
12.09.2017 05:50 12,4 C 17,8 C 84 % 1006,8 hPa 0,0 l/m 7,5 km/h (2 Bft) SW 217 0 min 0,000 mm 0,0 UV-I 0 W/m 9,8 C 11,7 C 9,7 km/h (2 Bft) 98,11 %
12.09.2017 05:52 12,4 C 17,8 C 84 % 1006,9 hPa 0,0 l/m 9,9 km/h (2 Bft) SW 220 0 min 0,000 mm 0,0 UV-I 0 W/m 9,8 C 10,3 C 14,5 km/h (3 Bft) 100,00 %
12.09.2017 05:54 12,4 C 17,8 C 84 % 1006,9 hPa 0,0 l/m 7,1 km/h (2 Bft) SW 216 0 min 0,000 mm 0,0 UV-I 0 W/m 9,8 C 11,9 C 11,3 km/h (2 Bft) 97,73 %
12.09.2017 05:56 12,4 C 17,8 C 85 % 1006,9 hPa 0,0 l/m 7,8 km/h (2 Bft) S-SW 205 0 min 0,000 mm 0,0 UV-I 0 W/m 9,9 C 11,5 C 11,3 km/h (2 Bft) 100,00 %
12.09.2017 05:58 12,4 C 17,8 C 85 % 1006,9 hPa 0,0 l/m 7,9 km/h (2 Bft) S 190 0 min 0,000 mm 0,0 UV-I 0 W/m 9,9 C 11,4 C 11,3 km/h (2 Bft) 100,00 %
12.09.2017 06:00 12,4 C 17,8 C 85 % 1006,9 hPa 0,0 l/m 6,9 km/h (2 Bft) SW 233 0 min 0,026 mm 0,0 UV-I 0 W/m 9,9 C 12,1 C 11,3 km/h (2 Bft) 97,87 %
12.09.2017 06:02 12,3 C 17,8 C 85 % 1006,9 hPa 0,0 l/m 6,5 km/h (2 Bft) SW 226 0 min 0,000 mm 0,0 UV-I 0 W/m 9,9 C 12,3 C 9,7 km/h (2 Bft) 100,00 %
12.09.2017 06:04 12,3 C 17,8 C 85 % 1006,9 hPa 0,0 l/m 7,8 km/h (2 Bft) W-SW 237 0 min 0,000 mm 0,0 UV-I 0 W/m 9,9 C 11,4 C 12,9 km/h (3 Bft) 97,37 %
12.09.2017 06:06 12,3 C 17,8 C 85 % 1006,9 hPa 0,0 l/m 7,2 km/h (2 Bft) S-SW 204 0 min 0,000 mm 0,0 UV-I 0 W/m 9,9 C 11,8 C 16,1 km/h (3 Bft) 98,00 %
12.09.2017 06:08 12,3 C 17,8 C 85 % 1006,9 hPa 0,0 l/m 6,4 km/h (2 Bft) SW 234 0 min 0,000 mm 0,0 UV-I 0 W/m 9,9 C 12,3 C 9,7 km/h (2 Bft) 100,00 %
12.09.2017 06:10 12,3 C 17,8 C 85 % 1006,9 hPa 0,0 l/m 8,5 km/h (2 Bft) W-SW 238 0 min 0,000 mm 0,0 UV-I 0 W/m 9,9 C 11,0 C 11,3 km/h (2 Bft) 100,00 %
12.09.2017 06:12 12,3 C 17,8 C 85 % 1006,8 hPa 0,0 l/m 9,0 km/h (2 Bft) W-SW 240 0 min 0,000 mm 0,0 UV-I 0 W/m 9,9 C 10,7 C 11,3 km/h (2 Bft) 100,00 %
12.09.2017 06:14 12,3 C 17,8 C 85 % 1006,8 hPa 0,0 l/m 6,3 km/h (2 Bft) S-SW 205 0 min 0,000 mm 0,0 UV-I 0 W/m 9,9 C 12,3 C 9,7 km/h (2 Bft) 100,00 %
12.09.2017 06:16 12,3 C 17,8 C 85 % 1006,8 hPa 0,0 l/m 7,4 km/h (2 Bft) SW 234 0 min 0,000 mm 0,0 UV-I 0 W/m 9,9 C 11,6 C 12,9 km/h (3 Bft) 100,00 %
12.09.2017 06:18 12,3 C 17,8 C 85 % 1006,8 hPa 0,0 l/m 6,1 km/h (2 Bft) SW 234 0 min 0,000 mm 0,0 UV-I 0 W/m 9,9 C 12,3 C 9,7 km/h (2 Bft) 100,00 %
12.09.2017 06:20 12,3 C 17,8 C 85 % 1006,8 hPa 0,0 l/m 7,4 km/h (2 Bft) SW 234 0 min 0,000 mm 0,0 UV-I 0 W/m 9,9 C 11,6 C 9,7 km/h (2 Bft) 100,00 %
12.09.2017 06:22 12,3 C 17,8 C 85 % 1006,8 hPa 0,0 l/m 5,8 km/h (2 Bft) W-SW 240 0 min 0,000 mm 0,0 UV-I 0 W/m 9,9 C 12,3 C 8,0 km/h (2 Bft) 100,00 %
12.09.2017 06:24 12,2 C 17,8 C 85 % 1006,8 hPa 0,0 l/m 5,9 km/h (2 Bft) SW 230 0 min 0,000 mm 0,0 UV-I 0 W/m 9,8 C 12,2 C 8,0 km/h (2 Bft) 100,00 %
12.09.2017 06:26 12,2 C 17,8 C 85 % 1006,8 hPa 0,0 l/m 6,8 km/h (2 Bft) W-SW 240 0 min 0,000 mm 0,0 UV-I 0 W/m 9,8 C 11,9 C 9,7 km/h (2 Bft) 100,00 %
12.09.2017 06:28 12,2 C 17,8 C 85 % 1006,8 hPa 0,0 l/m 6,4 km/h (2 Bft) SW 221 0 min 0,000 mm 0,0 UV-I 0 W/m 9,8 C 12,2 C 11,3 km/h (2 Bft) 100,00 %
12.09.2017 06:30 12,2 C 17,8 C 85 % 1006,8 hPa 0,0 l/m 6,7 km/h (2 Bft) W-SW 238 0 min 0,000 mm 0,0 UV-I 0 W/m 9,8 C 12,0 C 9,7 km/h (2 Bft) 94,29 %
12.09.2017 06:32 12,2 C 17,8 C 85 % 1006,8 hPa 0,0 l/m 6,0 km/h (2 Bft) S-SW 213 0 min 0,000 mm 0,0 UV-I 0 W/m 9,8 C 12,2 C 9,7 km/h (2 Bft) 98,11 %
12.09.2017 06:34 12,2 C 17,8 C 85 % 1006,8 hPa 0,0 l/m 6,6 km/h (2 Bft) SW 223 0 min 0,000 mm 0,0 UV-I 3 W/m 9,8 C 12,1 C 9,7 km/h (2 Bft) 95,12 %
12.09.2017 06:36 12,2 C 17,8 C 85 % 1006,8 hPa 0,0 l/m 5,9 km/h (2 Bft) SW 233 0 min 0,000 mm 0,0 UV-I 5 W/m 9,8 C 12,2 C 8,0 km/h (2 Bft) 98,21 %
12.09.2017 06:38 12,2 C 17,8 C 85 % 1006,8 hPa 0,0 l/m 5,9 km/h (2 Bft) SW 234 0 min 0,000 mm 0,0 UV-I 5 W/m 9,8 C 12,2 C 8,0 km/h (2 Bft) 98,00 %
12.09.2017 06:40 12,2 C 17,8 C 85 % 1006,8 hPa 0,0 l/m 7,2 km/h (2 Bft) W-SW 252 0 min 0,000 mm 0,0 UV-I 5 W/m 9,8 C 11,7 C 12,9 km/h (3 Bft) 96,00 %
12.09.2017 06:42 12,2 C 17,8 C 85 % 1006,9 hPa 0,0 l/m 5,7 km/h (1 Bft) W-SW 257 0 min 0,000 mm 0,0 UV-I 6 W/m 9,8 C 12,2 C 9,7 km/h (2 Bft) 97,87 %
12.09.2017 06:44 12,2 C 17,8 C 85 % 1006,8 hPa 0,0 l/m 4,9 km/h (1 Bft) SW 236 0 min 0,000 mm 0,0 UV-I 7 W/m 9,8 C 12,2 C 6,4 km/h (2 Bft) 97,37 %
12.09.2017 06:46 12,2 C 17,8 C 85 % 1006,8 hPa 0,0 l/m 5,8 km/h (2 Bft) W 263 0 min 0,000 mm 0,0 UV-I 7 W/m 9,8 C 12,2 C 9,7 km/h (2 Bft) 97,87 %
12.09.2017 06:48 12,1 C 17,8 C 85 % 1006,8 hPa 0,0 l/m 5,5 km/h (1 Bft) SW 217 0 min 0,000 mm 0,0 UV-I 9 W/m 9,7 C 12,1 C 8,0 km/h (2 Bft) 96,43 %
12.09.2017 06:50 12,1 C 17,8 C 85 % 1006,8 hPa 0,0 l/m 5,3 km/h (1 Bft) SW 222 0 min 0,000 mm 0,0 UV-I 10 W/m 9,7 C 12,1 C 6,4 km/h (2 Bft) 97,44 %
12.09.2017 06:52 12,1 C 17,8 C 85 % 1006,8 hPa 0,0 l/m 4,4 km/h (1 Bft) SW 221 0 min 0,000 mm 0,0 UV-I 11 W/m 9,7 C 12,1 C 6,4 km/h (2 Bft) 98,08 %
12.09.2017 06:54 12,1 C 17,8 C 85 % 1006,8 hPa 0,0 l/m 4,3 km/h (1 Bft) SW 220 0 min 0,000 mm 0,0 UV-I 11 W/m 9,7 C 12,1 C 6,4 km/h (2 Bft) 97,87 %
12.09.2017 06:56 12,1 C 17,8 C 85 % 1006,8 hPa 0,0 l/m 5,2 km/h (1 Bft) S-SW 202 0 min 0,000 mm 0,0 UV-I 13 W/m 9,7 C 12,1 C 8,0 km/h (2 Bft) 97,44 %
12.09.2017 06:58 12,1 C 17,8 C 85 % 1006,8 hPa 0,0 l/m 7,2 km/h (2 Bft) SW 214 0 min 0,000 mm 0,0 UV-I 14 W/m 9,7 C 11,6 C 9,7 km/h (2 Bft) 96,00 %
12.09.2017 07:00 12,1 C 17,8 C 85 % 1006,8 hPa 0,0 l/m 7,0 km/h (2 Bft) S-SW 203 0 min 0,025 mm 0,0 UV-I 21 W/m 9,7 C 11,7 C 9,7 km/h (2 Bft) 98,00 %
12.09.2017 07:02 12,1 C 17,8 C 85 % 1006,8 hPa 0,0 l/m 5,7 km/h (1 Bft) S-SW 209 0 min 0,000 mm 0,0 UV-I 26 W/m 9,7 C 12,1 C 8,0 km/h (2 Bft) 95,74 %
12.09.2017 07:04 12,1 C 17,8 C 85 % 1006,7 hPa 0,0 l/m 4,2 km/h (1 Bft) S-SW 192 0 min 0,000 mm 0,0 UV-I 21 W/m 9,7 C 12,1 C 6,4 km/h (2 Bft) 98,00 %
12.09.2017 07:06 12,1 C 17,8 C 85 % 1006,8 hPa 0,0 l/m 2,7 km/h (1 Bft) S-SW 205 0 min 0,000 mm 0,0 UV-I 19 W/m 9,7 C 12,1 C 4,8 km/h (1 Bft) 95,12 %
12.09.2017 07:08 12,1 C 17,8 C 85 % 1006,7 hPa 0,0 l/m 3,6 km/h (1 Bft) S-SW 208 0 min 0,000 mm 0,0 UV-I 20 W/m 9,7 C 12,1 C 6,4 km/h (2 Bft) 100,00 %
12.09.2017 07:10 12,1 C 17,8 C 85 % 1006,7 hPa 0,0 l/m 3,9 km/h (1 Bft) S-SW 208 0 min 0,000 mm 0,0 UV-I 21 W/m 9,7 C 12,1 C 6,4 km/h (2 Bft) 100,00 %
12.09.2017 07:12 12,1 C 17,8 C 85 % 1006,7 hPa 0,0 l/m 4,5 km/h (1 Bft) S-SW 197 0 min 0,000 mm 0,0 UV-I 21 W/m 9,7 C 12,1 C 6,4 km/h (2 Bft) 100,00 %
12.09.2017 07:14 12,1 C 17,8 C 85 % 1006,8 hPa 0,0 l/m 5,9 km/h (2 Bft) S-SW 202 0 min 0,000 mm 0,0 UV-I 19 W/m 9,7 C 12,1 C 8,0 km/h (2 Bft) 100,00 %
12.09.2017 07:16 12,1 C 17,8 C 85 % 1006,7 hPa 0,0 l/m 5,4 km/h (1 Bft) S-SW 202 0 min 0,000 mm 0,0 UV-I 21 W/m 9,7 C 12,1 C 8,0 km/h (2 Bft) 100,00 %
12.09.2017 07:18 12,1 C 17,8 C 85 % 1006,8 hPa 0,0 l/m 5,9 km/h (2 Bft) S-SW 213 0 min 0,000 mm 0,0 UV-I 23 W/m 9,7 C 12,1 C 8,0 km/h (2 Bft) 100,00 %
12.09.2017 07:20 12,1 C 17,8 C 85 % 1006,8 hPa 0,0 l/m 5,0 km/h (1 Bft) S-SW 202 0 min 0,000 mm 0,0 UV-I 27 W/m 9,7 C 12,1 C 8,0 km/h (2 Bft) 100,00 %
12.09.2017 07:22 12,1 C 17,8 C 85 % 1006,8 hPa 0,0 l/m 5,6 km/h (1 Bft) SW 221 0 min 0,000 mm 0,0 UV-I 31 W/m 9,7 C 12,1 C 11,3 km/h (2 Bft) 100,00 %
12.09.2017 07:24 12,1 C 17,8 C 85 % 1006,8 hPa 0,0 l/m 6,3 km/h (2 Bft) S-SW 207 0 min 0,000 mm 0,0 UV-I 37 W/m 9,7 C 12,1 C 9,7 km/h (2 Bft) 100,00 %
12.09.2017 07:26 12,2 C 17,8 C 85 % 1006,8 hPa 0,0 l/m 6,0 km/h (2 Bft) S-SW 206 0 min 0,000 mm 0,0 UV-I 39 W/m 9,8 C 12,2 C 8,0 km/h (2 Bft) 100,00 %
12.09.2017 07:28 12,2 C 17,8 C 85 % 1006,8 hPa 0,0 l/m 5,4 km/h (1 Bft) S-SW 211 0 min 0,000 mm 0,0 UV-I 37 W/m 9,8 C 12,2 C 9,7 km/h (2 Bft) 100,00 %
12.09.2017 07:30 12,2 C 17,8 C 85 % 1006,8 hPa 0,0 l/m 6,1 km/h (2 Bft) SW 214 0 min 0,000 mm 0,0 UV-I 33 W/m 9,8 C 12,2 C 9,7 km/h (2 Bft) 97,44 %
12.09.2017 07:32 12,2 C 17,8 C 85 % 1006,8 hPa 0,0 l/m 5,5 km/h (1 Bft) S-SW 208 0 min 0,000 mm 0,0 UV-I 32 W/m 9,8 C 12,2 C 8,0 km/h (2 Bft) 97,37 %
12.09.2017 07:34 12,2 C 17,8 C 85 % 1006,8 hPa 0,0 l/m 5,1 km/h (1 Bft) SW 233 0 min 0,000 mm 0,0 UV-I 32 W/m 9,8 C 12,2 C 8,0 km/h (2 Bft) 100,00 %
12.09.2017 07:36 12,2 C 17,8 C 85 % 1006,8 hPa 0,0 l/m 5,7 km/h (1 Bft) SW 217 0 min 0,000 mm 0,0 UV-I 33 W/m 9,8 C 12,2 C 9,7 km/h (2 Bft) 100,00 %
12.09.2017 07:38 12,2 C 17,8 C 85 % 1006,8 hPa 0,0 l/m 5,2 km/h (1 Bft) SW 219 0 min 0,000 mm 0,0 UV-I 33 W/m 9,8 C 12,2 C 6,4 km/h (2 Bft) 100,00 %
12.09.2017 07:40 12,2 C 17,8 C 85 % 1006,7 hPa 0,0 l/m 5,9 km/h (2 Bft) SW 221 0 min 0,000 mm 0,0 UV-I 35 W/m 9,8 C 12,2 C 9,7 km/h (2 Bft) 100,00 %
12.09.2017 07:42 12,2 C 17,8 C 85 % 1006,8 hPa 0,0 l/m 5,8 km/h (2 Bft) SW 215 0 min 0,000 mm 0,0 UV-I 38 W/m 9,8 C 12,2 C 9,7 km/h (2 Bft) 100,00 %
12.09.2017 07:44 12,2 C 17,8 C 85 % 1006,8 hPa 0,0 l/m 5,7 km/h (1 Bft) S-SW 209 0 min 0,000 mm 0,0 UV-I 41 W/m 9,8 C 12,2 C 8,0 km/h (2 Bft) 100,00 %
12.09.2017 07:46 12,2 C 17,8 C 84 % 1006,8 hPa 0,0 l/m 5,7 km/h (1 Bft) S-SW 213 0 min 0,000 mm 0,0 UV-I 47 W/m 9,6 C 12,2 C 6,4 km/h (2 Bft) 100,00 %
12.09.2017 07:48 12,3 C 17,8 C 84 % 1006,8 hPa 0,0 l/m 6,1 km/h (2 Bft) SW 216 0 min 0,000 mm 0,0 UV-I 54 W/m 9,7 C 12,3 C 8,0 km/h (2 Bft) 100,00 %
12.09.2017 07:50 12,3 C 17,8 C 83 % 1006,8 hPa 0,0 l/m 5,6 km/h (1 Bft) S-SW 213 0 min 0,000 mm 0,0 UV-I 62 W/m 9,5 C 12,3 C 9,7 km/h (2 Bft) 100,00 %
12.09.2017 07:52 12,4 C 17,8 C 83 % 1006,9 hPa 0,0 l/m 5,6 km/h (1 Bft) SW 216 0 min 0,000 mm 0,0 UV-I 67 W/m 9,6 C 12,4 C 8,0 km/h (2 Bft) 100,00 %
12.09.2017 07:54 12,4 C 17,8 C 84 % 1006,9 hPa 0,0 l/m 5,3 km/h (1 Bft) S-SW 207 0 min 0,000 mm 0,0 UV-I 72 W/m 9,8 C 12,4 C 8,0 km/h (2 Bft) 100,00 %
12.09.2017 07:56 12,4 C 17,8 C 84 % 1006,9 hPa 0,0 l/m 4,9 km/h (1 Bft) S-SW 206 0 min 0,000 mm 0,0 UV-I 77 W/m 9,8 C 12,4 C 11,3 km/h (2 Bft) 98,00 %
12.09.2017 07:58 12,5 C 17,8 C 84 % 1006,9 hPa 0,0 l/m 4,9 km/h (1 Bft) SW 221 0 min 0,000 mm 0,0 UV-I 79 W/m 9,9 C 12,5 C 8,0 km/h (2 Bft) 98,00 %
12.09.2017 08:00 12,5 C 17,8 C 84 % 1007,0 hPa 0,0 l/m 4,3 km/h (1 Bft) W-SW 238 0 min 0,026 mm 0,0 UV-I 79 W/m 9,9 C 12,5 C 8,0 km/h (2 Bft) 97,73 %
12.09.2017 08:02 12,6 C 17,8 C 84 % 1006,9 hPa 0,0 l/m 4,5 km/h (1 Bft) S-SW 207 0 min 0,000 mm 0,0 UV-I 79 W/m 10,0 C 12,6 C 8,0 km/h (2 Bft) 90,91 %
12.09.2017 08:04 12,6 C 17,8 C 84 % 1006,8 hPa 0,0 l/m 4,1 km/h (1 Bft) SW 224 0 min 0,000 mm 0,0 UV-I 80 W/m 10,0 C 12,6 C 6,4 km/h (2 Bft) 96,00 %
12.09.2017 08:06 12,6 C 17,8 C 84 % 1006,8 hPa 0,0 l/m 4,4 km/h (1 Bft) SW 225 0 min 0,000 mm 0,0 UV-I 97 W/m 10,0 C 12,6 C 6,4 km/h (2 Bft) 98,21 %
12.09.2017 08:08 12,6 C 17,8 C 83 % 1006,8 hPa 0,0 l/m 3,8 km/h (1 Bft) S-SW 205 0 min 0,000 mm 0,0 UV-I 77 W/m 9,8 C 12,6 C 6,4 km/h (2 Bft) 100,00 %
12.09.2017 08:10 12,6 C 17,8 C 83 % 1006,8 hPa 0,0 l/m 3,6 km/h (1 Bft) SW 224 0 min 0,000 mm 0,0 UV-I 69 W/m 9,8 C 12,6 C 6,4 km/h (2 Bft) 96,77 %
12.09.2017 08:12 12,6 C 17,8 C 84 % 1006,8 hPa 0,0 l/m 3,4 km/h (1 Bft) SW 224 0 min 0,000 mm 0,0 UV-I 67 W/m 10,0 C 12,6 C 4,8 km/h (1 Bft) 97,87 %
12.09.2017 08:14 12,6 C 17,8 C 84 % 1006,8 hPa 0,0 l/m 3,0 km/h (1 Bft) SW 224 0 min 0,000 mm 0,0 UV-I 70 W/m 10,0 C 12,6 C 4,8 km/h (1 Bft) 96,00 %
12.09.2017 08:16 12,7 C 17,8 C 84 % 1006,9 hPa 0,0 l/m 2,3 km/h (1 Bft) SW 224 0 min 0,000 mm 0,0 UV-I 78 W/m 10,1 C 12,7 C 4,8 km/h (1 Bft) 98,00 %
12.09.2017 08:18 12,7 C 17,8 C 84 % 1006,9 hPa 0,0 l/m 3,8 km/h (1 Bft) SW 222 0 min 0,000 mm 0,0 UV-I 87 W/m 10,1 C 12,7 C 6,4 km/h (2 Bft) 97,37 %
12.09.2017 08:20 12,7 C 17,8 C 85 % 1006,9 hPa 0,0 l/m 2,6 km/h (1 Bft) SW 222 0 min 0,000 mm 0,0 UV-I 96 W/m 10,2 C 12,7 C 6,4 km/h (2 Bft) 98,00 %
12.09.2017 08:22 12,7 C 17,8 C 85 % 1006,9 hPa 0,0 l/m 2,8 km/h (1 Bft) SW 222 0 min 0,000 mm 0,0 UV-I 104 W/m 10,2 C 12,7 C 4,8 km/h (1 Bft) 96,00 %
12.09.2017 08:24 12,7 C 17,8 C 83 % 1006,9 hPa 0,0 l/m 2,8 km/h (1 Bft) SW 222 0 min 0,000 mm 0,0 UV-I 113 W/m 9,9 C 12,7 C 4,8 km/h (1 Bft) 100,00 %
12.09.2017 08:26 12,8 C 17,8 C 84 % 1006,8 hPa 0,0 l/m 0,5 km/h (0 Bft) SW 222 0 min 0,000 mm 0,0 UV-I 127 W/m 10,2 C 12,8 C 1,6 km/h (1 Bft) 96,97 %
12.09.2017 08:28 12,9 C 17,8 C 85 % 1006,9 hPa 0,0 l/m 0,9 km/h (0 Bft) SW 222 0 min 0,000 mm 0,0 UV-I 139 W/m 10,4 C 12,9 C 3,2 km/h (1 Bft) 97,56 %
12.09.2017 08:30 12,9 C 17,8 C 85 % 1006,9 hPa 0,0 l/m 3,0 km/h (1 Bft) SW 222 0 min 0,000 mm 0,0 UV-I 141 W/m 10,4 C 12,9 C 4,8 km/h (1 Bft) 98,00 %
12.09.2017 08:32 13,0 C 17,8 C 85 % 1006,9 hPa 0,0 l/m 2,5 km/h (1 Bft) SW 222 0 min 0,000 mm 0,0 UV-I 135 W/m 10,5 C 13,0 C 3,2 km/h (1 Bft) 97,56 %
12.09.2017 08:34 13,0 C 17,8 C 84 % 1006,9 hPa 0,0 l/m 2,3 km/h (1 Bft) SW 222 0 min 0,000 mm 0,0 UV-I 129 W/m 10,4 C 13,0 C 4,8 km/h (1 Bft) 96,43 %
12.09.2017 08:36 13,1 C 17,8 C 84 % 1006,9 hPa 0,0 l/m 0,9 km/h (0 Bft) SW 222 0 min 0,000 mm 0,0 UV-I 121 W/m 10,5 C 13,1 C 3,2 km/h (1 Bft) 94,29 %
12.09.2017 08:38 13,1 C 17,8 C 84 % 1007,0 hPa 0,0 l/m 3,1 km/h (1 Bft) SW 222 0 min 0,000 mm 0,0 UV-I 113 W/m 10,5 C 13,1 C 4,8 km/h (1 Bft) 96,43 %
12.09.2017 08:40 13,1 C 17,8 C 84 % 1007,0 hPa 0,0 l/m 4,4 km/h (1 Bft) SW 222 0 min 0,000 mm 0,0 UV-I 106 W/m 10,5 C 13,1 C 6,4 km/h (2 Bft) 92,00 %
12.09.2017 08:42 13,1 C 17,8 C 84 % 1007,0 hPa 0,0 l/m 4,5 km/h (1 Bft) SW 222 0 min 0,000 mm 0,0 UV-I 97 W/m 10,5 C 13,1 C 6,4 km/h (2 Bft) 94,74 %
12.09.2017 08:44 13,1 C 17,8 C 83 % 1007,0 hPa 0,0 l/m 3,4 km/h (1 Bft) SW 222 0 min 0,000 mm 0,0 UV-I 89 W/m 10,3 C 13,1 C 4,8 km/h (1 Bft) 94,00 %
12.09.2017 08:46 13,2 C 17,8 C 83 % 1007,0 hPa 0,0 l/m 2,8 km/h (1 Bft) SW 222 0 min 0,000 mm 0,0 UV-I 84 W/m 10,4 C 13,2 C 4,8 km/h (1 Bft) 94,00 %
12.09.2017 08:48 13,2 C 17,8 C 82 % 1007,0 hPa 0,0 l/m 2,4 km/h (1 Bft) SW 222 0 min 0,000 mm 0,0 UV-I 83 W/m 10,2 C 13,2 C 4,8 km/h (1 Bft) 96,00 %
12.09.2017 08:50 13,2 C 17,8 C 84 % 1007,0 hPa 0,0 l/m 3,7 km/h (1 Bft) SW 222 0 min 0,000 mm 0,0 UV-I 82 W/m 10,6 C 13,2 C 4,8 km/h (1 Bft) 94,87 %
12.09.2017 08:52 13,2 C 17,8 C 83 % 1007,0 hPa 0,0 l/m 3,8 km/h (1 Bft) SW 222 0 min 0,000 mm 0,0 UV-I 81 W/m 10,4 C 13,2 C 6,4 km/h (2 Bft) 96,00 %
12.09.2017 08:54 13,2 C 17,8 C 83 % 1007,0 hPa 0,0 l/m 2,8 km/h (1 Bft) SW 222 0 min 0,000 mm 0,0 UV-I 81 W/m 10,4 C 13,2 C 4,8 km/h (1 Bft) 96,00 %
12.09.2017 08:56 13,2 C 17,8 C 83 % 1007,1 hPa 0,0 l/m 2,9 km/h (1 Bft) SW 222 0 min 0,000 mm 0,0 UV-I 86 W/m 10,4 C 13,2 C 4,8 km/h (1 Bft) 94,00 %
12.09.2017 08:58 13,2 C 17,8 C 83 % 1007,1 hPa 0,0 l/m 3,4 km/h (1 Bft) SW 222 0 min 0,000 mm 0,0 UV-I 92 W/m 10,4 C 13,2 C 6,4 km/h (2 Bft) 97,14 %
12.09.2017 09:00 13,2 C 17,8 C 83 % 1007,1 hPa 0,0 l/m 4,1 km/h (1 Bft) SW 221 0 min 0,000 mm 0,0 UV-I 94 W/m 10,4 C 13,2 C 6,4 km/h (2 Bft) 96,00 %
12.09.2017 09:02 13,2 C 17,8 C 83 % 1007,1 hPa 0,0 l/m 3,2 km/h (1 Bft) SW 221 0 min 0,050 mm 0,0 UV-I 89 W/m 10,4 C 13,2 C 4,8 km/h (1 Bft) 100,00 %
12.09.2017 09:04 13,3 C 17,8 C 83 % 1007,2 hPa 0,0 l/m 2,0 km/h (1 Bft) SW 222 0 min 0,000 mm 0,0 UV-I 84 W/m 10,5 C 13,3 C 4,8 km/h (1 Bft) 96,23 %
12.09.2017 09:06 13,3 C 17,8 C 83 % 1007,2 hPa 0,0 l/m 2,7 km/h (1 Bft) SW 231 0 min 0,000 mm 0,0 UV-I 84 W/m 10,5 C 13,3 C 4,8 km/h (1 Bft) 98,11 %
12.09.2017 09:08 13,3 C 17,8 C 83 % 1007,2 hPa 0,0 l/m 2,3 km/h (1 Bft) SW 231 0 min 0,000 mm 0,0 UV-I 87 W/m 10,5 C 13,3 C 3,2 km/h (1 Bft) 97,87 %
12.09.2017 09:10 13,3 C 17,8 C 83 % 1007,2 hPa 0,0 l/m 2,7 km/h (1 Bft) SW 231 0 min 0,000 mm 0,0 UV-I 90 W/m 10,5 C 13,3 C 4,8 km/h (1 Bft) 98,00 %
12.09.2017 09:12 13,3 C 17,8 C 83 % 1007,2 hPa 0,0 l/m 2,7 km/h (1 Bft) SW 231 0 min 0,000 mm 0,0 UV-I 91 W/m 10,5 C 13,3 C 4,8 km/h (1 Bft) 100,00 %
12.09.2017 09:14 13,3 C 17,8 C 83 % 1007,2 hPa 0,0 l/m 3,4 km/h (1 Bft) SW 228 0 min 0,000 mm 0,0 UV-I 93 W/m 10,5 C 13,3 C 6,4 km/h (2 Bft) 100,00 %
12.09.2017 09:16 13,3 C 17,8 C 83 % 1007,3 hPa 0,0 l/m 3,2 km/h (1 Bft) SW 228 0 min 0,000 mm 0,0 UV-I 96 W/m 10,5 C 13,3 C 4,8 km/h (1 Bft) 100,00 %
12.09.2017 09:18 13,3 C 17,8 C 83 % 1007,3 hPa 0,0 l/m 3,7 km/h (1 Bft) SW 228 0 min 0,000 mm 0,0 UV-I 98 W/m 10,5 C 13,3 C 4,8 km/h (1 Bft) 94,74 %
12.09.2017 09:20 13,3 C 17,8 C 83 % 1007,3 hPa 0,0 l/m 4,5 km/h (1 Bft) SW 219 0 min 0,000 mm 0,0 UV-I 101 W/m 10,5 C 13,3 C 6,4 km/h (2 Bft) 100,00 %
12.09.2017 09:22 13,3 C 17,8 C 83 % 1007,3 hPa 0,0 l/m 4,6 km/h (1 Bft) SW 230 0 min 0,000 mm 0,0 UV-I 104 W/m 10,5 C 13,3 C 6,4 km/h (2 Bft) 100,00 %
12.09.2017 09:24 13,3 C 17,8 C 83 % 1007,4 hPa 0,0 l/m 5,0 km/h (1 Bft) SW 235 0 min 0,000 mm 0,3 UV-I 110 W/m 10,5 C 13,3 C 6,4 km/h (2 Bft) 97,87 %
12.09.2017 09:26 13,3 C 17,8 C 84 % 1007,3 hPa 0,0 l/m 3,2 km/h (1 Bft) SW 235 0 min 0,000 mm 0,5 UV-I 112 W/m 10,7 C 13,3 C 4,8 km/h (1 Bft) 100,00 %
12.09.2017 09:28 13,3 C 17,8 C 83 % 1007,4 hPa 0,0 l/m 5,2 km/h (1 Bft) SW 225 0 min 0,000 mm 0,5 UV-I 113 W/m 10,5 C 13,3 C 8,0 km/h (2 Bft) 100,00 %
12.09.2017 09:30 13,3 C 17,8 C 83 % 1007,4 hPa 0,0 l/m 3,9 km/h (1 Bft) W-SW 237 0 min 0,000 mm 0,5 UV-I 115 W/m 10,5 C 13,3 C 6,4 km/h (2 Bft) 100,00 %
12.09.2017 09:32 13,3 C 17,8 C 83 % 1007,4 hPa 0,0 l/m 3,2 km/h (1 Bft) SW 233 0 min 0,000 mm 0,5 UV-I 114 W/m 10,5 C 13,3 C 6,4 km/h (2 Bft) 100,00 %
12.09.2017 09:34 13,4 C 17,8 C 83 % 1007,4 hPa 0,0 l/m 4,6 km/h (1 Bft) W 263 0 min 0,000 mm 0,5 UV-I 113 W/m 10,6 C 13,4 C 6,4 km/h (2 Bft) 100,00 %
12.09.2017 09:36 13,4 C 17,8 C 83 % 1007,4 hPa 0,0 l/m 4,9 km/h (1 Bft) SW 233 0 min 0,000 mm 0,5 UV-I 114 W/m 10,6 C 13,4 C 8,0 km/h (2 Bft) 98,11 %
12.09.2017 09:38 13,4 C 17,8 C 83 % 1007,4 hPa 0,0 l/m 6,9 km/h (2 Bft) W-SW 252 0 min 0,000 mm 0,5 UV-I 116 W/m 10,6 C 13,1 C 12,9 km/h (3 Bft) 97,37 %
12.09.2017 09:40 13,4 C 17,8 C 82 % 1007,5 hPa 0,0 l/m 5,9 km/h (2 Bft) W-SW 241 0 min 0,000 mm 0,5 UV-I 123 W/m 10,4 C 13,4 C 8,0 km/h (2 Bft) 100,00 %
12.09.2017 09:42 13,4 C 17,8 C 82 % 1007,5 hPa 0,0 l/m 7,2 km/h (2 Bft) W-SW 240 0 min 0,000 mm 0,6 UV-I 131 W/m 10,4 C 12,9 C 12,9 km/h (3 Bft) 100,00 %
12.09.2017 09:44 13,4 C 17,8 C 82 % 1007,5 hPa 0,0 l/m 6,7 km/h (2 Bft) W-SW 255 0 min 0,000 mm 0,6 UV-I 138 W/m 10,4 C 13,2 C 11,3 km/h (2 Bft) 100,00 %
12.09.2017 09:46 13,5 C 17,8 C 83 % 1007,5 hPa 0,0 l/m 5,2 km/h (1 Bft) S-SW 211 0 min 0,000 mm 0,7 UV-I 149 W/m 10,7 C 13,5 C 8,0 km/h (2 Bft) 100,00 %
12.09.2017 09:48 13,6 C 17,8 C 82 % 1007,5 hPa 0,0 l/m 7,0 km/h (2 Bft) W 268 0 min 0,000 mm 0,7 UV-I 160 W/m 10,6 C 13,2 C 9,7 km/h (2 Bft) 100,00 %
12.09.2017 09:50 13,6 C 17,8 C 81 % 1007,5 hPa 0,0 l/m 8,6 km/h (2 Bft) W 261 0 min 0,000 mm 0,7 UV-I 167 W/m 10,4 C 12,3 C 14,5 km/h (3 Bft) 97,56 %
12.09.2017 09:52 13,6 C 17,8 C 81 % 1007,5 hPa 0,0 l/m 7,2 km/h (2 Bft) W-SW 257 0 min 0,000 mm 0,7 UV-I 160 W/m 10,4 C 13,1 C 14,5 km/h (3 Bft) 98,21 %
12.09.2017 09:54 13,7 C 17,8 C 81 % 1007,5 hPa 0,0 l/m 7,0 km/h (2 Bft) S-SW 208 0 min 0,000 mm 0,7 UV-I 151 W/m 10,5 C 13,3 C 12,9 km/h (3 Bft) 100,00 %
12.09.2017 09:56 13,7 C 17,8 C 81 % 1007,5 hPa 0,0 l/m 6,8 km/h (2 Bft) W-SW 238 0 min 0,000 mm 0,7 UV-I 148 W/m 10,5 C 13,5 C 9,7 km/h (2 Bft) 100,00 %
12.09.2017 09:58 13,7 C 17,8 C 81 % 1007,5 hPa 0,0 l/m 7,0 km/h (2 Bft) SW 223 0 min 0,000 mm 0,7 UV-I 148 W/m 10,5 C 13,3 C 12,9 km/h (3 Bft) 98,11 %
12.09.2017 10:00 13,7 C 17,8 C 81 % 1007,6 hPa 0,0 l/m 4,8 km/h (1 Bft) W-SW 255 0 min 0,077 mm 0,7 UV-I 148 W/m 10,5 C 13,7 C 6,4 km/h (2 Bft) 100,00 %
12.09.2017 10:02 13,7 C 17,8 C 80 % 1007,5 hPa 0,0 l/m 8,0 km/h (2 Bft) W-SW 253 0 min 0,000 mm 0,7 UV-I 150 W/m 10,3 C 12,7 C 16,1 km/h (3 Bft) 100,00 %
12.09.2017 10:04 13,7 C 17,8 C 79 % 1007,5 hPa 0,0 l/m 6,5 km/h (2 Bft) W 272 0 min 0,000 mm 0,7 UV-I 153 W/m 10,1 C 13,7 C 12,9 km/h (3 Bft) 100,00 %
12.09.2017 10:06 13,7 C 17,8 C 80 % 1007,5 hPa 0,0 l/m 8,0 km/h (2 Bft) SW 217 0 min 0,000 mm 0,7 UV-I 152 W/m 10,3 C 12,7 C 12,9 km/h (3 Bft) 100,00 %
12.09.2017 10:08 13,7 C 17,8 C 78 % 1007,6 hPa 0,0 l/m 6,7 km/h (2 Bft) SW 232 0 min 0,000 mm 0,7 UV-I 149 W/m 9,9 C 13,5 C 11,3 km/h (2 Bft) 100,00 %
12.09.2017 10:10 13,8 C 17,8 C 79 % 1007,7 hPa 0,0 l/m 7,5 km/h (2 Bft) S-SW 199 0 min 0,000 mm 0,7 UV-I 151 W/m 10,2 C 13,1 C 12,9 km/h (3 Bft) 100,00 %
12.09.2017 10:12 13,8 C 17,8 C 78 % 1007,7 hPa 0,0 l/m 7,7 km/h (2 Bft) W-SW 238 0 min 0,000 mm 0,8 UV-I 154 W/m 10,0 C 13,0 C 11,3 km/h (2 Bft) 97,56 %
12.09.2017 10:14 13,8 C 17,8 C 78 % 1007,8 hPa 0,0 l/m 8,2 km/h (2 Bft) SW 225 0 min 0,000 mm 0,7 UV-I 147 W/m 10,0 C 12,7 C 12,9 km/h (3 Bft) 100,00 %
12.09.2017 10:16 13,8 C 17,8 C 78 % 1007,9 hPa 0,0 l/m 10,3 km/h (2 Bft) SW 218 0 min 0,000 mm 0,7 UV-I 129 W/m 10,0 C 11,6 C 17,7 km/h (3 Bft) 100,00 %
12.09.2017 10:18 13,8 C 17,8 C 78 % 1007,9 hPa 0,0 l/m 7,9 km/h (2 Bft) SW 220 0 min 0,000 mm 0,6 UV-I 125 W/m 10,0 C 12,9 C 11,3 km/h (2 Bft) 100,00 %
12.09.2017 10:20 13,8 C 17,8 C 79 % 1008,0 hPa 0,0 l/m 7,5 km/h (2 Bft) W 259 0 min 0,000 mm 0,6 UV-I 124 W/m 10,2 C 13,1 C 11,3 km/h (2 Bft) 100,00 %
12.09.2017 10:22 13,8 C 17,8 C 78 % 1008,0 hPa 0,0 l/m 7,4 km/h (2 Bft) W-SW 254 0 min 0,000 mm 0,6 UV-I 119 W/m 10,0 C 13,2 C 14,5 km/h (3 Bft) 100,00 %
12.09.2017 10:24 13,8 C 17,8 C 79 % 1008,0 hPa 0,0 l/m 5,9 km/h (2 Bft) SW 214 0 min 0,000 mm 0,7 UV-I 125 W/m 10,2 C 13,8 C 9,7 km/h (2 Bft) 97,87 %
12.09.2017 10:26 13,8 C 17,8 C 78 % 1007,9 hPa 0,0 l/m 8,0 km/h (2 Bft) W 265 0 min 0,000 mm 0,8 UV-I 144 W/m 10,0 C 12,8 C 11,3 km/h (2 Bft) 100,00 %
12.09.2017 10:28 13,8 C 17,8 C 78 % 1007,9 hPa 0,0 l/m 7,8 km/h (2 Bft) W-SW 238 0 min 0,000 mm 0,9 UV-I 157 W/m 10,0 C 13,0 C 12,9 km/h (3 Bft) 100,00 %
12.09.2017 10:30 13,9 C 17,8 C 78 % 1008,0 hPa 0,0 l/m 8,6 km/h (2 Bft) SW 224 0 min 0,000 mm 0,8 UV-I 154 W/m 10,1 C 12,6 C 14,5 km/h (3 Bft) 100,00 %
12.09.2017 10:32 13,9 C 17,8 C 78 % 1008,0 hPa 0,0 l/m 7,7 km/h (2 Bft) W 262 0 min 0,000 mm 0,8 UV-I 152 W/m 10,1 C 13,1 C 11,3 km/h (2 Bft) 97,87 %
12.09.2017 10:34 13,9 C 17,8 C 78 % 1008,1 hPa 0,0 l/m 6,9 km/h (2 Bft) S-SW 198 0 min 0,000 mm 0,8 UV-I 143 W/m 10,1 C 13,6 C 11,3 km/h (2 Bft) 100,00 %
12.09.2017 10:36 13,9 C 17,8 C 78 % 1008,1 hPa 0,0 l/m 6,7 km/h (2 Bft) S-SW 205 0 min 0,000 mm 0,7 UV-I 125 W/m 10,1 C 13,7 C 11,3 km/h (2 Bft) 98,00 %
12.09.2017 10:38 13,9 C 17,8 C 78 % 1008,1 hPa 0,0 l/m 7,5 km/h (2 Bft) W-SW 258 0 min 0,000 mm 0,6 UV-I 119 W/m 10,1 C 13,2 C 12,9 km/h (3 Bft) 97,22 %
12.09.2017 10:40 13,9 C 17,8 C 79 % 1008,2 hPa 0,0 l/m 5,9 km/h (2 Bft) SW 236 0 min 0,000 mm 0,6 UV-I 115 W/m 10,3 C 13,9 C 9,7 km/h (2 Bft) 98,28 %
12.09.2017 10:42 13,9 C 17,8 C 78 % 1008,2 hPa 0,0 l/m 7,8 km/h (2 Bft) W-SW 244 0 min 0,000 mm 0,6 UV-I 109 W/m 10,1 C 13,1 C 11,3 km/h (2 Bft) 96,43 %
12.09.2017 10:44 13,9 C 17,8 C 79 % 1008,3 hPa 0,0 l/m 6,8 km/h (2 Bft) SW 232 0 min 0,000 mm 0,6 UV-I 101 W/m 10,3 C 13,7 C 11,3 km/h (2 Bft) 97,56 %
12.09.2017 10:46 13,9 C 17,8 C 79 % 1008,3 hPa 0,0 l/m 6,5 km/h (2 Bft) W-SW 246 0 min 0,000 mm 0,5 UV-I 100 W/m 10,3 C 13,9 C 11,3 km/h (2 Bft) 98,00 %
12.09.2017 10:48 13,9 C 17,8 C 79 % 1008,4 hPa 0,0 l/m 6,7 km/h (2 Bft) W-SW 250 0 min 0,000 mm 0,6 UV-I 113 W/m 10,3 C 13,7 C 11,3 km/h (2 Bft) 97,87 %
12.09.2017 10:50 13,8 C 17,8 C 79 % 1008,4 hPa 0,0 l/m 8,0 km/h (2 Bft) SW 232 0 min 0,000 mm 0,6 UV-I 120 W/m 10,2 C 12,8 C 11,3 km/h (2 Bft) 95,24 %
12.09.2017 10:52 13,8 C 17,8 C 79 % 1008,4 hPa 0,0 l/m 7,1 km/h (2 Bft) SW 219 0 min 0,000 mm 0,7 UV-I 126 W/m 10,2 C 13,4 C 9,7 km/h (2 Bft) 97,73 %
12.09.2017 10:54 13,8 C 17,8 C 79 % 1008,4 hPa 0,0 l/m 7,8 km/h (2 Bft) SW 229 0 min 0,000 mm 0,7 UV-I 132 W/m 10,2 C 13,0 C 16,1 km/h (3 Bft) 98,21 %
12.09.2017 10:56 13,8 C 17,8 C 80 % 1008,5 hPa 0,0 l/m 6,4 km/h (2 Bft) SW 225 0 min 0,000 mm 0,7 UV-I 128 W/m 10,4 C 13,8 C 9,7 km/h (2 Bft) 97,87 %
12.09.2017 10:58 13,8 C 17,8 C 80 % 1008,5 hPa 0,0 l/m 7,8 km/h (2 Bft) SW 227 0 min 0,000 mm 0,6 UV-I 118 W/m 10,4 C 13,0 C 11,3 km/h (2 Bft) 97,56 %
12.09.2017 11:00 13,8 C 17,8 C 80 % 1008,5 hPa 0,0 l/m 6,8 km/h (2 Bft) SW 227 0 min 0,076 mm 0,6 UV-I 115 W/m 10,4 C 13,6 C 11,3 km/h (2 Bft) 96,23 %
12.09.2017 11:02 13,8 C 17,8 C 79 % 1008,6 hPa 0,0 l/m 8,7 km/h (2 Bft) W-SW 243 0 min 0,000 mm 0,7 UV-I 126 W/m 10,2 C 12,5 C 12,9 km/h (3 Bft) 97,44 %
12.09.2017 11:04 13,8 C 17,8 C 80 % 1008,6 hPa 0,0 l/m 6,0 km/h (2 Bft) W-SW 254 0 min 0,000 mm 0,7 UV-I 122 W/m 10,4 C 13,8 C 9,7 km/h (2 Bft) 95,74 %
12.09.2017 11:06 13,8 C 17,8 C 80 % 1008,6 hPa 0,0 l/m 6,0 km/h (2 Bft) W-SW 241 0 min 0,000 mm 0,6 UV-I 111 W/m 10,4 C 13,8 C 9,7 km/h (2 Bft) 93,62 %
12.09.2017 11:08 13,8 C 17,8 C 80 % 1008,6 hPa 0,0 l/m 6,3 km/h (2 Bft) W-SW 254 0 min 0,000 mm 0,6 UV-I 113 W/m 10,4 C 13,8 C 9,7 km/h (2 Bft) 98,00 %
12.09.2017 11:10 13,8 C 17,8 C 80 % 1008,8 hPa 0,0 l/m 5,8 km/h (2 Bft) W-SW 238 0 min 0,000 mm 0,6 UV-I 116 W/m 10,4 C 13,8 C 12,9 km/h (3 Bft) 100,00 %
12.09.2017 11:12 13,9 C 17,8 C 79 % 1008,8 hPa 0,0 l/m 6,8 km/h (2 Bft) W-SW 257 0 min 0,000 mm 0,6 UV-I 112 W/m 10,3 C 13,7 C 12,9 km/h (3 Bft) 100,00 %
12.09.2017 11:14 13,9 C 17,8 C 79 % 1008,9 hPa 0,0 l/m 4,6 km/h (1 Bft) W-SW 256 0 min 0,000 mm 0,6 UV-I 112 W/m 10,3 C 13,9 C 6,4 km/h (2 Bft) 100,00 %
12.09.2017 11:16 13,9 C 17,8 C 80 % 1008,9 hPa 0,0 l/m 4,4 km/h (1 Bft) W-SW 247 0 min 0,000 mm 0,6 UV-I 110 W/m 10,5 C 13,9 C 8,0 km/h (2 Bft) 96,00 %
12.09.2017 11:18 13,9 C 17,8 C 80 % 1008,9 hPa 0,0 l/m 6,5 km/h (2 Bft) S-SW 206 0 min 0,000 mm 0,5 UV-I 98 W/m 10,5 C 13,9 C 11,3 km/h (2 Bft) 97,37 %
12.09.2017 11:20 13,8 C 17,8 C 78 % 1009,0 hPa 0,0 l/m 4,9 km/h (1 Bft) W-SW 248 0 min 0,000 mm 0,5 UV-I 97 W/m 10,0 C 13,8 C 9,7 km/h (2 Bft) 100,00 %
12.09.2017 11:22 13,8 C 17,8 C 79 % 1009,1 hPa 0,0 l/m 5,1 km/h (1 Bft) NW 323 0 min 0,000 mm 0,6 UV-I 108 W/m 10,2 C 13,8 C 9,7 km/h (2 Bft) 100,00 %
12.09.2017 11:24 13,8 C 17,8 C 78 % 1009,0 hPa 0,0 l/m 7,8 km/h (2 Bft) W-SW 252 0 min 0,000 mm 0,6 UV-I 108 W/m 10,0 C 13,0 C 14,5 km/h (3 Bft) 100,00 %
12.09.2017 11:26 13,8 C 17,8 C 77 % 1009,1 hPa 0,0 l/m 4,7 km/h (1 Bft) W-SW 255 0 min 0,000 mm 0,6 UV-I 105 W/m 9,8 C 13,8 C 9,7 km/h (2 Bft) 100,00 %
12.09.2017 11:28 13,8 C 17,8 C 77 % 1009,1 hPa 0,0 l/m 2,3 km/h (1 Bft) W 275 0 min 0,000 mm 0,6 UV-I 108 W/m 9,8 C 13,8 C 4,8 km/h (1 Bft) 100,00 %
12.09.2017 11:30 13,8 C 17,8 C 77 % 1009,0 hPa 0,0 l/m 2,8 km/h (1 Bft) W-SW 248 0 min 0,000 mm 0,6 UV-I 113 W/m 9,8 C 13,8 C 6,4 km/h (2 Bft) 97,37 %
12.09.2017 11:32 13,7 C 17,8 C 77 % 1009,1 hPa 0,0 l/m 6,4 km/h (2 Bft) W 269 0 min 0,000 mm 0,5 UV-I 102 W/m 9,7 C 13,7 C 12,9 km/h (3 Bft) 100,00 %
12.09.2017 11:34 13,7 C 17,8 C 78 % 1009,1 hPa 0,0 l/m 4,5 km/h (1 Bft) W-SW 254 0 min 0,000 mm 0,5 UV-I 96 W/m 9,9 C 13,7 C 6,4 km/h (2 Bft) 100,00 %
12.09.2017 11:36 13,7 C 17,8 C 78 % 1009,1 hPa 0,0 l/m 2,9 km/h (1 Bft) W-SW 254 0 min 0,000 mm 0,5 UV-I 98 W/m 9,9 C 13,7 C 4,8 km/h (1 Bft) 100,00 %
12.09.2017 11:38 13,7 C 17,8 C 79 % 1009,1 hPa 0,0 l/m 3,9 km/h (1 Bft) W-NW 289 0 min 0,000 mm 0,5 UV-I 93 W/m 10,1 C 13,7 C 6,4 km/h (2 Bft) 100,00 %
12.09.2017 11:40 13,7 C 17,8 C 81 % 1009,2 hPa 0,4 l/m 9,5 km/h (2 Bft) W 274 0 min 0,000 mm 0,2 UV-I 76 W/m 10,5 C 11,9 C 12,9 km/h (3 Bft) 100,00 %
12.09.2017 11:42 13,6 C 17,8 C 81 % 1009,3 hPa 0,4 l/m 8,9 km/h (2 Bft) W 269 0 min 0,000 mm 0,0 UV-I 54 W/m 10,4 C 12,1 C 16,1 km/h (3 Bft) 98,11 %
12.09.2017 11:44 13,3 C 17,8 C 82 % 1009,3 hPa 0,4 l/m 8,4 km/h (2 Bft) W-SW 248 0 min 0,000 mm 0,0 UV-I 54 W/m 10,3 C 12,1 C 12,9 km/h (3 Bft) 100,00 %
12.09.2017 11:46 12,9 C 17,8 C 83 % 1009,3 hPa 0,0 l/m 6,7 km/h (2 Bft) W 265 0 min 0,000 mm 0,1 UV-I 72 W/m 10,1 C 12,7 C 11,3 km/h (2 Bft) 98,31 %
12.09.2017 11:48 12,7 C 17,8 C 85 % 1009,3 hPa 0,2 l/m 6,2 km/h (2 Bft) W 271 0 min 0,000 mm 0,5 UV-I 88 W/m 10,2 C 12,7 C 9,7 km/h (2 Bft) 97,56 %
12.09.2017 11:50 12,6 C 17,8 C 86 % 1009,3 hPa 0,0 l/m 7,3 km/h (2 Bft) SW 230 0 min 0,000 mm 0,5 UV-I 87 W/m 10,3 C 12,0 C 12,9 km/h (3 Bft) 98,11 %
12.09.2017 11:52 12,4 C 17,8 C 87 % 1009,4 hPa 0,2 l/m 6,1 km/h (2 Bft) W-SW 242 0 min 0,000 mm 0,6 UV-I 92 W/m 10,3 C 12,4 C 11,3 km/h (2 Bft) 100,00 %
12.09.2017 11:54 12,3 C 17,8 C 88 % 1009,4 hPa 0,2 l/m 8,0 km/h (2 Bft) W-NW 286 0 min 0,000 mm 0,6 UV-I 108 W/m 10,4 C 11,3 C 14,5 km/h (3 Bft) 100,00 %
12.09.2017 11:56 12,2 C 17,8 C 88 % 1009,3 hPa 0,0 l/m 6,0 km/h (2 Bft) SW 232 0 min 0,000 mm 0,7 UV-I 123 W/m 10,3 C 12,2 C 9,7 km/h (2 Bft) 97,56 %
12.09.2017 11:58 12,2 C 17,8 C 89 % 1009,4 hPa 0,2 l/m 6,8 km/h (2 Bft) W 263 0 min 0,000 mm 0,8 UV-I 141 W/m 10,4 C 11,9 C 12,9 km/h (3 Bft) 96,23 %
12.09.2017 12:00 12,1 C 17,8 C 89 % 1009,4 hPa 0,0 l/m 4,3 km/h (1 Bft) W 261 0 min 0,076 mm 0,9 UV-I 158 W/m 10,3 C 12,1 C 6,4 km/h (2 Bft) 95,24 %
12.09.2017 12:02 12,1 C 17,8 C 90 % 1009,4 hPa 0,0 l/m 3,9 km/h (1 Bft) W 265 0 min 0,000 mm 1,0 UV-I 176 W/m 10,5 C 12,1 C 6,4 km/h (2 Bft) 96,00 %
12.09.2017 12:04 12,1 C 17,8 C 91 % 1009,4 hPa 0,0 l/m 4,8 km/h (1 Bft) W-SW 255 0 min 0,000 mm 1,2 UV-I 184 W/m 10,7 C 12,1 C 6,4 km/h (2 Bft) 97,22 %
12.09.2017 12:06 12,1 C 17,8 C 91 % 1009,4 hPa 0,0 l/m 5,8 km/h (2 Bft) W 259 0 min 0,000 mm 1,2 UV-I 182 W/m 10,7 C 12,1 C 9,7 km/h (2 Bft) 98,11 %
12.09.2017 12:08 12,2 C 17,2 C 91 % 1009,4 hPa 0,0 l/m 4,5 km/h (1 Bft) W 263 0 min 0,000 mm 1,2 UV-I 191 W/m 10,8 C 12,2 C 6,4 km/h (2 Bft) 97,73 %
12.09.2017 12:10 12,2 C 17,2 C 91 % 1009,4 hPa 0,2 l/m 5,6 km/h (1 Bft) W 265 0 min 0,000 mm 1,3 UV-I 203 W/m 10,8 C 12,2 C 11,3 km/h (2 Bft) 98,00 %
12.09.2017 12:12 12,2 C 17,2 C 91 % 1009,4 hPa 0,0 l/m 4,4 km/h (1 Bft) W 262 0 min 0,000 mm 1,3 UV-I 218 W/m 10,8 C 12,2 C 6,4 km/h (2 Bft) 97,73 %
12.09.2017 12:14 12,2 C 17,8 C 90 % 1009,4 hPa 0,0 l/m 4,3 km/h (1 Bft) W-SW 246 0 min 0,000 mm 1,4 UV-I 234 W/m 10,6 C 12,2 C 9,7 km/h (2 Bft) 98,21 %
12.09.2017 12:16 12,3 C 17,8 C 91 % 1009,4 hPa 0,0 l/m 3,7 km/h (1 Bft) W 268 0 min 0,000 mm 1,5 UV-I 248 W/m 10,9 C 12,3 C 6,4 km/h (2 Bft) 97,56 %
12.09.2017 12:18 12,5 C 17,8 C 91 % 1009,4 hPa 0,0 l/m 5,3 km/h (1 Bft) SW 228 0 min 0,000 mm 1,6 UV-I 259 W/m 11,1 C 12,5 C 8,0 km/h (2 Bft) 96,00 %
12.09.2017 12:20 12,6 C 17,8 C 91 % 1009,4 hPa 0,0 l/m 2,8 km/h (1 Bft) SW 227 0 min 0,000 mm 1,6 UV-I 267 W/m 11,2 C 12,6 C 6,4 km/h (2 Bft) 97,87 %
12.09.2017 12:22 12,7 C 17,8 C 92 % 1009,4 hPa 0,0 l/m 1,9 km/h (1 Bft) SW 227 0 min 0,000 mm 1,6 UV-I 266 W/m 11,4 C 12,7 C 3,2 km/h (1 Bft) 93,62 %
12.09.2017 12:24 12,8 C 17,8 C 92 % 1009,5 hPa 0,0 l/m 1,9 km/h (1 Bft) SW 227 0 min 0,000 mm 1,6 UV-I 261 W/m 11,5 C 12,8 C 4,8 km/h (1 Bft) 94,74 %
12.09.2017 12:26 12,8 C 17,8 C 91 % 1009,5 hPa 0,0 l/m 3,0 km/h (1 Bft) SW 227 0 min 0,000 mm 1,6 UV-I 264 W/m 11,4 C 12,8 C 6,4 km/h (2 Bft) 98,00 %
12.09.2017 12:28 12,9 C 17,8 C 92 % 1009,5 hPa 0,0 l/m 3,7 km/h (1 Bft) SW 232 0 min 0,000 mm 1,7 UV-I 274 W/m 11,6 C 12,9 C 8,0 km/h (2 Bft) 98,11 %
12.09.2017 12:30 13,1 C 17,8 C 92 % 1009,5 hPa 0,0 l/m 5,3 km/h (1 Bft) S-SW 210 0 min 0,000 mm 1,7 UV-I 291 W/m 11,8 C 13,1 C 8,0 km/h (2 Bft) 91,43 %
12.09.2017 12:32 13,2 C 17,8 C 92 % 1009,5 hPa 0,0 l/m 4,4 km/h (1 Bft) SW 229 0 min 0,000 mm 1,8 UV-I 302 W/m 11,9 C 13,2 C 6,4 km/h (2 Bft) 98,11 %
12.09.2017 12:34 13,2 C 17,8 C 91 % 1009,5 hPa 0,0 l/m 3,6 km/h (1 Bft) S-SW 203 0 min 0,000 mm 1,9 UV-I 309 W/m 11,8 C 13,2 C 8,0 km/h (2 Bft) 98,11 %
12.09.2017 12:36 13,3 C 17,8 C 91 % 1009,5 hPa 0,0 l/m 3,1 km/h (1 Bft) W 261 0 min 0,000 mm 1,9 UV-I 311 W/m 11,9 C 13,3 C 4,8 km/h (1 Bft) 92,11 %
12.09.2017 12:38 13,4 C 17,8 C 92 % 1009,5 hPa 0,0 l/m 4,4 km/h (1 Bft) W-SW 254 0 min 0,000 mm 2,1 UV-I 346 W/m 12,1 C 13,4 C 11,3 km/h (2 Bft) 94,23 %
12.09.2017 12:40 13,5 C 17,8 C 90 % 1009,5 hPa 0,0 l/m 8,2 km/h (2 Bft) SW 227 0 min 0,000 mm 2,2 UV-I 382 W/m 11,9 C 12,4 C 12,9 km/h (3 Bft) 95,45 %
12.09.2017 12:42 13,6 C 17,8 C 91 % 1009,5 hPa 0,0 l/m 7,5 km/h (2 Bft) W-SW 246 0 min 0,000 mm 2,2 UV-I 369 W/m 12,2 C 12,9 C 12,9 km/h (3 Bft) 92,45 %
12.09.2017 12:44 13,8 C 17,8 C 91 % 1009,5 hPa 0,0 l/m 6,6 km/h (2 Bft) W-SW 249 0 min 0,000 mm 2,0 UV-I 333 W/m 12,4 C 13,7 C 11,3 km/h (2 Bft) 97,44 %
12.09.2017 12:46 13,8 C 17,8 C 90 % 1009,5 hPa 0,0 l/m 8,3 km/h (2 Bft) SW 225 0 min 0,000 mm 1,9 UV-I 295 W/m 12,2 C 12,7 C 14,5 km/h (3 Bft) 96,15 %
12.09.2017 12:48 13,8 C 17,8 C 88 % 1009,5 hPa 0,0 l/m 13,0 km/h (3 Bft) W-SW 246 0 min 0,000 mm 1,8 UV-I 274 W/m 11,8 C 10,5 C 19,3 km/h (3 Bft) 92,00 %
12.09.2017 12:50 13,8 C 17,8 C 88 % 1009,6 hPa 0,0 l/m 8,1 km/h (2 Bft) W-SW 237 0 min 0,000 mm 1,7 UV-I 258 W/m 11,8 C 12,8 C 14,5 km/h (3 Bft) 93,75 %
12.09.2017 12:52 13,8 C 17,8 C 89 % 1009,7 hPa 0,0 l/m 11,3 km/h (2 Bft) SW 236 0 min 0,000 mm 1,6 UV-I 248 W/m 12,0 C 11,2 C 17,7 km/h (3 Bft) 92,68 %
12.09.2017 12:54 13,8 C 17,8 C 89 % 1009,6 hPa 0,0 l/m 6,7 km/h (2 Bft) SW 228 0 min 0,000 mm 1,6 UV-I 249 W/m 12,0 C 13,6 C 11,3 km/h (2 Bft) 95,12 %
12.09.2017 12:56 13,9 C 17,8 C 89 % 1009,6 hPa 0,0 l/m 7,3 km/h (2 Bft) W 263 0 min 0,000 mm 1,7 UV-I 264 W/m 12,1 C 13,4 C 12,9 km/h (3 Bft) 94,34 %
12.09.2017 12:58 13,9 C 17,8 C 89 % 1009,6 hPa 0,0 l/m 11,1 km/h (2 Bft) W 265 0 min 0,000 mm 1,8 UV-I 283 W/m 12,1 C 11,4 C 19,3 km/h (3 Bft) 95,12 %
12.09.2017 13:00 13,9 C 17,8 C 88 % 1009,6 hPa 0,0 l/m 8,5 km/h (2 Bft) W-SW 248 0 min 0,127 mm 2,0 UV-I 293 W/m 11,9 C 12,7 C 16,1 km/h (3 Bft) 96,00 %
12.09.2017 13:02 13,9 C 17,8 C 88 % 1009,7 hPa 0,0 l/m 12,1 km/h (2 Bft) S-SW 212 0 min 0,000 mm 1,8 UV-I 269 W/m 11,9 C 11,0 C 19,3 km/h (3 Bft) 94,00 %
12.09.2017 13:04 14,0 C 17,8 C 87 % 1009,8 hPa 0,0 l/m 11,9 km/h (2 Bft) SW 234 0 min 0,000 mm 1,6 UV-I 226 W/m 11,9 C 11,2 C 17,7 km/h (3 Bft) 95,12 %
12.09.2017 13:06 14,0 C 17,8 C 86 % 1009,8 hPa 0,0 l/m 14,0 km/h (3 Bft) SW 225 0 min 0,000 mm 1,4 UV-I 194 W/m 11,7 C 10,3 C 24,1 km/h (4 Bft) 92,00 %
12.09.2017 13:08 13,9 C 17,8 C 85 % 1009,7 hPa 0,0 l/m 12,0 km/h (2 Bft) S-SW 205 0 min 0,000 mm 1,4 UV-I 197 W/m 11,4 C 11,0 C 19,3 km/h (3 Bft) 98,00 %
12.09.2017 13:10 13,9 C 17,8 C 85 % 1009,7 hPa 0,0 l/m 13,7 km/h (3 Bft) S-SW 203 0 min 0,000 mm 1,5 UV-I 221 W/m 11,4 C 10,3 C 19,3 km/h (3 Bft) 100,00 %
12.09.2017 13:12 13,9 C 17,8 C 84 % 1009,8 hPa 0,0 l/m 16,9 km/h (3 Bft) SW 228 0 min 0,000 mm 1,5 UV-I 235 W/m 11,2 C 9,2 C 30,6 km/h (5 Bft) 100,00 %
12.09.2017 13:14 13,9 C 17,8 C 84 % 1009,8 hPa 0,0 l/m 12,9 km/h (3 Bft) SW 222 0 min 0,000 mm 1,3 UV-I 213 W/m 11,2 C 10,6 C 20,9 km/h (4 Bft) 100,00 %
12.09.2017 13:16 13,9 C 17,8 C 84 % 1009,9 hPa 0,0 l/m 12,1 km/h (2 Bft) W-SW 241 0 min 0,000 mm 1,2 UV-I 193 W/m 11,2 C 11,0 C 20,9 km/h (4 Bft) 98,00 %
12.09.2017 13:18 13,9 C 17,8 C 85 % 1009,9 hPa 0,0 l/m 10,3 km/h (2 Bft) W-SW 245 0 min 0,000 mm 1,4 UV-I 222 W/m 11,4 C 11,8 C 24,1 km/h (4 Bft) 96,00 %
12.09.2017 13:20 14,0 C 17,8 C 84 % 1009,8 hPa 0,0 l/m 16,0 km/h (3 Bft) W-SW 246 0 min 0,000 mm 1,4 UV-I 224 W/m 11,3 C 9,6 C 22,5 km/h (4 Bft) 100,00 %
12.09.2017 13:22 14,0 C 17,8 C 84 % 1009,9 hPa 0,0 l/m 17,8 km/h (3 Bft) W-SW 240 0 min 0,000 mm 1,4 UV-I 223 W/m 11,3 C 9,1 C 27,4 km/h (4 Bft) 100,00 %
12.09.2017 13:24 13,9 C 17,8 C 82 % 1009,9 hPa 0,0 l/m 20,3 km/h (4 Bft) SW 229 0 min 0,000 mm 1,3 UV-I 212 W/m 10,9 C 8,2 C 27,4 km/h (4 Bft) 100,00 %
12.09.2017 13:26 13,9 C 17,8 C 82 % 1009,9 hPa 0,0 l/m 19,3 km/h (3 Bft) W-SW 238 0 min 0,000 mm 1,3 UV-I 218 W/m 10,9 C 8,5 C 25,7 km/h (4 Bft) 100,00 %
12.09.2017 13:28 13,9 C 17,8 C 82 % 1010,0 hPa 0,0 l/m 15,7 km/h (3 Bft) W 260 0 min 0,000 mm 1,3 UV-I 225 W/m 10,9 C 9,6 C 25,7 km/h (4 Bft) 100,00 %
12.09.2017 13:30 13,9 C 17,8 C 83 % 1010,0 hPa 0,0 l/m 16,4 km/h (3 Bft) W 271 0 min 0,000 mm 1,7 UV-I 296 W/m 11,1 C 9,4 C 25,7 km/h (4 Bft) 100,00 %
12.09.2017 13:32 14,0 C 17,8 C 82 % 1010,0 hPa 0,0 l/m 16,4 km/h (3 Bft) SW 225 0 min 0,000 mm 2,1 UV-I 373 W/m 11,0 C 9,5 C 22,5 km/h (4 Bft) 100,00 %
12.09.2017 13:34 14,1 C 17,8 C 82 % 1010,0 hPa 0,0 l/m 19,6 km/h (3 Bft) SW 223 2 min 0,000 mm 2,5 UV-I 489 W/m 11,1 C 8,7 C 30,6 km/h (5 Bft) 100,00 %
12.09.2017 13:36 14,3 C 17,8 C 81 % 1010,1 hPa 0,0 l/m 15,5 km/h (3 Bft) S-SW 194 2 min 0,000 mm 2,6 UV-I 516 W/m 11,1 C 10,2 C 22,5 km/h (4 Bft) 100,00 %
12.09.2017 13:38 14,4 C 17,8 C 81 % 1010,0 hPa 0,0 l/m 15,7 km/h (3 Bft) W-SW 238 2 min 0,000 mm 2,2 UV-I 471 W/m 11,2 C 10,2 C 27,4 km/h (4 Bft) 100,00 %
12.09.2017 13:40 14,4 C 17,8 C 81 % 1010,1 hPa 0,0 l/m 16,4 km/h (3 Bft) S-SW 195 0 min 0,000 mm 1,7 UV-I 267 W/m 11,2 C 10,0 C 25,7 km/h (4 Bft) 100,00 %
12.09.2017 13:42 14,4 C 17,8 C 80 % 1010,1 hPa 0,0 l/m 17,3 km/h (3 Bft) SW 227 0 min 0,000 mm 1,2 UV-I 202 W/m 11,0 C 9,7 C 25,7 km/h (4 Bft) 98,31 %
12.09.2017 13:44 14,3 C 17,8 C 80 % 1010,1 hPa 0,0 l/m 16,3 km/h (3 Bft) W 271 0 min 0,000 mm 1,0 UV-I 174 W/m 10,9 C 9,9 C 25,7 km/h (4 Bft) 100,00 %
12.09.2017 13:46 14,1 C 17,8 C 80 % 1010,1 hPa 0,0 l/m 17,3 km/h (3 Bft) W 261 0 min 0,000 mm 1,0 UV-I 160 W/m 10,7 C 9,4 C 25,7 km/h (4 Bft) 100,00 %
12.09.2017 13:48 13,9 C 17,8 C 82 % 1010,2 hPa 0,2 l/m 13,1 km/h (3 Bft) W-SW 250 0 min 0,000 mm 1,0 UV-I 165 W/m 10,9 C 10,6 C 19,3 km/h (3 Bft) 100,00 %
12.09.2017 13:50 13,7 C 17,8 C 82 % 1010,2 hPa 0,0 l/m 14,8 km/h (3 Bft) W 276 0 min 0,000 mm 1,1 UV-I 175 W/m 10,7 C 9,7 C 29,0 km/h (5 Bft) 100,00 %
12.09.2017 13:52 13,7 C 17,8 C 82 % 1010,2 hPa 0,0 l/m 17,3 km/h (3 Bft) SW 229 0 min 0,000 mm 1,2 UV-I 189 W/m 10,7 C 8,9 C 27,4 km/h (4 Bft) 98,21 %
12.09.2017 13:54 13,7 C 17,8 C 80 % 1010,2 hPa 0,0 l/m 20,1 km/h (4 Bft) SW 228 0 min 0,000 mm 1,3 UV-I 203 W/m 10,3 C 8,0 C 27,4 km/h (4 Bft) 97,56 %
12.09.2017 13:56 13,7 C 17,8 C 82 % 1010,2 hPa 0,0 l/m 17,4 km/h (3 Bft) W-SW 252 0 min 0,000 mm 1,3 UV-I 218 W/m 10,7 C 8,8 C 27,4 km/h (4 Bft) 100,00 %
12.09.2017 13:58 13,7 C 17,8 C 81 % 1010,2 hPa 0,0 l/m 14,0 km/h (3 Bft) W-SW 238 0 min 0,000 mm 1,4 UV-I 238 W/m 10,5 C 10,0 C 22,5 km/h (4 Bft) 100,00 %
12.09.2017 14:00 13,7 C 17,8 C 83 % 1010,2 hPa 0,0 l/m 16,4 km/h (3 Bft) W 266 0 min 0,152 mm 1,6 UV-I 274 W/m 10,9 C 9,1 C 24,1 km/h (4 Bft) 100,00 %
12.09.2017 14:02 13,7 C 17,8 C 82 % 1010,3 hPa 0,0 l/m 18,4 km/h (3 Bft) W-SW 238 0 min 0,000 mm 1,7 UV-I 299 W/m 10,7 C 8,5 C 29,0 km/h (5 Bft) 100,00 %
12.09.2017 14:04 13,8 C 17,8 C 81 % 1010,3 hPa 0,0 l/m 18,3 km/h (3 Bft) SW 232 0 min 0,000 mm 1,7 UV-I 302 W/m 10,6 C 8,7 C 29,0 km/h (5 Bft) 100,00 %
12.09.2017 14:06 13,9 C 17,8 C 81 % 1010,2 hPa 0,0 l/m 16,9 km/h (3 Bft) W-SW 250 0 min 0,000 mm 1,8 UV-I 311 W/m 10,7 C 9,2 C 22,5 km/h (4 Bft) 97,56 %
12.09.2017 14:08 13,9 C 17,8 C 81 % 1010,3 hPa 0,0 l/m 11,5 km/h (2 Bft) W 268 0 min 0,000 mm 1,9 UV-I 335 W/m 10,7 C 11,2 C 17,7 km/h (3 Bft) 94,00 %
12.09.2017 14:10 14,0 C 17,8 C 82 % 1010,3 hPa 0,0 l/m 12,2 km/h (2 Bft) W-SW 246 0 min 0,000 mm 1,9 UV-I 344 W/m 11,0 C 11,0 C 22,5 km/h (4 Bft) 100,00 %
12.09.2017 14:12 14,1 C 17,8 C 81 % 1010,3 hPa 0,0 l/m 17,3 km/h (3 Bft) W-SW 243 0 min 0,000 mm 2,0 UV-I 345 W/m 10,9 C 9,4 C 29,0 km/h (5 Bft) 98,11 %
12.09.2017 14:14 14,2 C 17,8 C 82 % 1010,3 hPa 0,0 l/m 12,4 km/h (3 Bft) W-SW 250 0 min 0,000 mm 2,0 UV-I 352 W/m 11,2 C 11,2 C 19,3 km/h (3 Bft) 98,00 %
12.09.2017 14:16 14,2 C 17,8 C 82 % 1010,3 hPa 0,0 l/m 15,0 km/h (3 Bft) SW 217 0 min 0,000 mm 2,0 UV-I 366 W/m 11,2 C 10,2 C 22,5 km/h (4 Bft) 100,00 %
12.09.2017 14:18 14,3 C 17,8 C 81 % 1010,4 hPa 0,0 l/m 18,8 km/h (3 Bft) SW 234 2 min 0,000 mm 2,1 UV-I 394 W/m 11,1 C 9,2 C 33,8 km/h (5 Bft) 100,00 %
12.09.2017 14:20 14,3 C 17,8 C 80 % 1010,4 hPa 0,0 l/m 22,3 km/h (4 Bft) W-SW 244 2 min 0,000 mm 2,2 UV-I 416 W/m 10,9 C 8,3 C 30,6 km/h (5 Bft) 100,00 %
12.09.2017 14:22 14,3 C 17,8 C 80 % 1010,4 hPa 0,0 l/m 22,8 km/h (4 Bft) S-SW 212 2 min 0,000 mm 2,3 UV-I 459 W/m 10,9 C 8,1 C 33,8 km/h (5 Bft) 100,00 %
12.09.2017 14:24 14,2 C 17,8 C 79 % 1010,4 hPa 0,0 l/m 18,5 km/h (3 Bft) SW 224 2 min 0,000 mm 2,4 UV-I 466 W/m 10,6 C 9,1 C 30,6 km/h (5 Bft) 98,00 %
12.09.2017 14:26 14,3 C 17,8 C 79 % 1010,3 hPa 0,0 l/m 18,9 km/h (3 Bft) W-SW 248 2 min 0,000 mm 2,4 UV-I 444 W/m 10,7 C 9,1 C 29,0 km/h (5 Bft) 100,00 %
12.09.2017 14:28 14,3 C 17,8 C 80 % 1010,4 hPa 0,0 l/m 15,8 km/h (3 Bft) W-SW 247 2 min 0,000 mm 2,1 UV-I 412 W/m 10,9 C 10,1 C 33,8 km/h (5 Bft) 100,00 %
12.09.2017 14:30 14,3 C 17,8 C 80 % 1010,4 hPa 0,0 l/m 15,9 km/h (3 Bft) W 259 0 min 0,000 mm 1,9 UV-I 353 W/m 10,9 C 10,0 C 27,4 km/h (4 Bft) 100,00 %
12.09.2017 14:32 14,3 C 17,8 C 80 % 1010,4 hPa 0,0 l/m 17,0 km/h (3 Bft) W-SW 243 0 min 0,000 mm 1,5 UV-I 271 W/m 10,9 C 9,7 C 27,4 km/h (4 Bft) 100,00 %
12.09.2017 14:34 14,3 C 17,8 C 79 % 1010,4 hPa 0,0 l/m 17,7 km/h (3 Bft) W-SW 237 0 min 0,000 mm 1,3 UV-I 219 W/m 10,7 C 9,5 C 30,6 km/h (5 Bft) 98,11 %
12.09.2017 14:36 14,2 C 17,8 C 78 % 1010,4 hPa 0,0 l/m 18,0 km/h (3 Bft) W-SW 251 0 min 0,000 mm 1,0 UV-I 184 W/m 10,4 C 9,3 C 25,7 km/h (4 Bft) 97,73 %
12.09.2017 14:38 14,0 C 17,8 C 79 % 1010,4 hPa 0,0 l/m 13,9 km/h (3 Bft) SW 233 0 min 0,000 mm 0,9 UV-I 167 W/m 10,4 C 10,4 C 20,9 km/h (4 Bft) 97,44 %
12.09.2017 14:40 13,9 C 17,8 C 80 % 1010,4 hPa 0,0 l/m 11,3 km/h (2 Bft) W 268 0 min 0,000 mm 0,8 UV-I 164 W/m 10,5 C 11,3 C 17,7 km/h (3 Bft) 94,34 %
12.09.2017 14:42 13,8 C 17,8 C 79 % 1010,5 hPa 0,0 l/m 18,3 km/h (3 Bft) W-SW 258 0 min 0,000 mm 0,9 UV-I 173 W/m 10,2 C 8,7 C 29,0 km/h (5 Bft) 95,12 %
12.09.2017 14:44 13,8 C 17,8 C 79 % 1010,5 hPa 0,0 l/m 18,4 km/h (3 Bft) W-SW 258 0 min 0,000 mm 1,0 UV-I 188 W/m 10,2 C 8,6 C 29,0 km/h (5 Bft) 97,73 %
12.09.2017 14:46 13,7 C 17,8 C 80 % 1010,4 hPa 0,0 l/m 16,6 km/h (3 Bft) W 264 0 min 0,000 mm 1,0 UV-I 201 W/m 10,3 C 9,1 C 24,1 km/h (4 Bft) 96,23 %
12.09.2017 14:48 13,8 C 17,8 C 80 % 1010,4 hPa 0,0 l/m 13,0 km/h (3 Bft) SW 228 0 min 0,000 mm 1,1 UV-I 221 W/m 10,4 C 10,5 C 19,3 km/h (3 Bft) 96,23 %
12.09.2017 14:50 13,8 C 17,8 C 80 % 1010,5 hPa 0,0 l/m 13,2 km/h (3 Bft) W-SW 249 0 min 0,000 mm 1,4 UV-I 278 W/m 10,4 C 10,4 C 17,7 km/h (3 Bft) 97,56 %
12.09.2017 14:52 13,9 C 17,8 C 80 % 1010,4 hPa 0,0 l/m 13,5 km/h (3 Bft) SW 219 0 min 0,000 mm 1,5 UV-I 295 W/m 10,5 C 10,4 C 25,7 km/h (4 Bft) 96,23 %
12.09.2017 14:54 13,9 C 17,8 C 78 % 1010,6 hPa 0,0 l/m 19,3 km/h (3 Bft) W-SW 258 0 min 0,000 mm 1,3 UV-I 250 W/m 10,1 C 8,5 C 30,6 km/h (5 Bft) 98,00 %
12.09.2017 14:56 13,9 C 17,8 C 78 % 1010,6 hPa 0,0 l/m 17,7 km/h (3 Bft) SW 221 0 min 0,000 mm 1,0 UV-I 187 W/m 10,1 C 9,0 C 29,0 km/h (5 Bft) 97,37 %
12.09.2017 14:58 13,9 C 17,8 C 78 % 1010,5 hPa 0,0 l/m 22,4 km/h (4 Bft) W 265 0 min 0,000 mm 0,8 UV-I 148 W/m 10,1 C 7,7 C 32,2 km/h (5 Bft) 98,11 %
12.09.2017 15:00 13,8 C 17,8 C 78 % 1010,6 hPa 0,0 l/m 17,5 km/h (3 Bft) SW 227 0 min 0,178 mm 0,6 UV-I 119 W/m 10,0 C 8,9 C 25,7 km/h (4 Bft) 97,87 %
12.09.2017 15:02 13,7 C 17,8 C 78 % 1010,6 hPa 0,0 l/m 18,6 km/h (3 Bft) W-SW 245 0 min 0,000 mm 0,5 UV-I 94 W/m 9,9 C 8,5 C 25,7 km/h (4 Bft) 96,00 %
12.09.2017 15:04 13,7 C 17,8 C 78 % 1010,6 hPa 0,0 l/m 18,9 km/h (3 Bft) SW 223 0 min 0,000 mm 0,5 UV-I 89 W/m 9,9 C 8,4 C 30,6 km/h (5 Bft) 97,56 %
12.09.2017 15:06 13,6 C 17,8 C 77 % 1010,7 hPa 0,0 l/m 23,1 km/h (4 Bft) W-SW 242 0 min 0,000 mm 0,5 UV-I 100 W/m 9,6 C 7,1 C 38,6 km/h (5 Bft) 96,23 %
12.09.2017 15:08 13,6 C 17,8 C 78 % 1010,7 hPa 0,0 l/m 16,3 km/h (3 Bft) S-SW 207 0 min 0,000 mm 0,6 UV-I 118 W/m 9,8 C 9,1 C 24,1 km/h (4 Bft) 97,37 %
12.09.2017 15:10 13,5 C 17,8 C 77 % 1010,7 hPa 0,0 l/m 16,6 km/h (3 Bft) W 263 0 min 0,000 mm 0,8 UV-I 137 W/m 9,5 C 8,8 C 35,4 km/h (5 Bft) 100,00 %
12.09.2017 15:12 13,4 C 17,8 C 78 % 1010,7 hPa 0,0 l/m 17,3 km/h (3 Bft) W-SW 248 0 min 0,000 mm 0,8 UV-I 148 W/m 9,6 C 8,5 C 29,0 km/h (5 Bft) 98,11 %
12.09.2017 15:14 13,5 C 17,8 C 77 % 1010,6 hPa 0,0 l/m 19,9 km/h (4 Bft) SW 219 0 min 0,000 mm 0,8 UV-I 147 W/m 9,5 C 7,8 C 29,0 km/h (5 Bft) 100,00 %
12.09.2017 15:16 13,5 C 17,8 C 77 % 1010,7 hPa 0,0 l/m 18,5 km/h (3 Bft) SW 227 0 min 0,000 mm 0,7 UV-I 137 W/m 9,5 C 8,2 C 25,7 km/h (4 Bft) 100,00 %
12.09.2017 15:18 13,4 C 17,8 C 78 % 1010,7 hPa 0,0 l/m 18,8 km/h (3 Bft) W-SW 255 0 min 0,000 mm 0,6 UV-I 125 W/m 9,6 C 8,0 C 27,4 km/h (4 Bft) 97,44 %
12.09.2017 15:20 13,3 C 17,8 C 78 % 1010,8 hPa 0,0 l/m 23,0 km/h (4 Bft) W-SW 240 0 min 0,000 mm 0,6 UV-I 112 W/m 9,5 C 6,8 C 30,6 km/h (5 Bft) 100,00 %
12.09.2017 15:22 13,3 C 17,8 C 78 % 1010,8 hPa 0,0 l/m 17,0 km/h (3 Bft) W-SW 246 0 min 0,000 mm 0,5 UV-I 102 W/m 9,5 C 8,5 C 24,1 km/h (4 Bft) 100,00 %
12.09.2017 15:24 13,2 C 17,8 C 80 % 1010,8 hPa 0,0 l/m 17,9 km/h (3 Bft) W 264 0 min 0,000 mm 0,5 UV-I 97 W/m 9,8 C 8,0 C 27,4 km/h (4 Bft) 100,00 %
12.09.2017 15:26 13,1 C 17,8 C 80 % 1010,8 hPa 0,0 l/m 18,4 km/h (3 Bft) W 259 0 min 0,000 mm 0,5 UV-I 95 W/m 9,7 C 7,8 C 30,6 km/h (5 Bft) 100,00 %
12.09.2017 15:28 12,9 C 17,8 C 81 % 1010,8 hPa 0,0 l/m 17,7 km/h (3 Bft) SW 227 0 min 0,000 mm 0,5 UV-I 93 W/m 9,7 C 7,7 C 24,1 km/h (4 Bft) 100,00 %
12.09.2017 15:30 12,8 C 17,8 C 81 % 1011,0 hPa 0,0 l/m 19,5 km/h (3 Bft) W-SW 241 0 min 0,000 mm 0,3 UV-I 91 W/m 9,6 C 7,0 C 29,0 km/h (5 Bft) 100,00 %
12.09.2017 15:32 12,7 C 17,8 C 82 % 1010,9 hPa 0,0 l/m 19,8 km/h (3 Bft) SW 217 0 min 0,000 mm 0,2 UV-I 91 W/m 9,7 C 6,8 C 30,6 km/h (5 Bft) 98,00 %
12.09.2017 15:34 12,6 C 17,8 C 83 % 1010,9 hPa 0,0 l/m 16,6 km/h (3 Bft) W 259 0 min 0,000 mm 0,5 UV-I 94 W/m 9,8 C 7,7 C 24,1 km/h (4 Bft) 100,00 %
12.09.2017 15:36 12,5 C 17,8 C 84 % 1010,9 hPa 0,0 l/m 18,3 km/h (3 Bft) W-SW 249 0 min 0,000 mm 0,5 UV-I 97 W/m 9,9 C 7,0 C 30,6 km/h (5 Bft) 100,00 %
12.09.2017 15:38 12,4 C 17,8 C 85 % 1011,0 hPa 0,0 l/m 14,4 km/h (3 Bft) SW 236 0 min 0,000 mm 0,5 UV-I 97 W/m 9,9 C 8,3 C 24,1 km/h (4 Bft) 100,00 %
12.09.2017 15:40 12,3 C 17,8 C 85 % 1011,0 hPa 0,0 l/m 17,4 km/h (3 Bft) S-SW 205 0 min 0,000 mm 0,4 UV-I 93 W/m 9,9 C 7,1 C 25,7 km/h (4 Bft) 100,00 %
12.09.2017 15:42 12,3 C 17,8 C 86 % 1011,0 hPa 0,0 l/m 17,0 km/h (3 Bft) SW 220 0 min 0,000 mm 0,0 UV-I 91 W/m 10,0 C 7,2 C 24,1 km/h (4 Bft) 97,37 %
12.09.2017 15:44 12,2 C 17,8 C 86 % 1011,0 hPa 0,0 l/m 15,6 km/h (3 Bft) S-SW 194 0 min 0,000 mm 0,0 UV-I 90 W/m 9,9 C 7,6 C 20,9 km/h (4 Bft) 100,00 %
12.09.2017 15:46 12,2 C 17,8 C 86 % 1011,1 hPa 0,0 l/m 16,2 km/h (3 Bft) SW 236 0 min 0,000 mm 0,0 UV-I 91 W/m 9,9 C 7,4 C 25,7 km/h (4 Bft) 97,56 %
12.09.2017 15:48 12,1 C 17,8 C 87 % 1011,1 hPa 0,0 l/m 15,7 km/h (3 Bft) W-SW 243 0 min 0,000 mm 0,1 UV-I 93 W/m 10,0 C 7,4 C 27,4 km/h (4 Bft) 100,00 %
12.09.2017 15:50 12,1 C 17,8 C 87 % 1011,0 hPa 0,0 l/m 15,7 km/h (3 Bft) W-SW 242 0 min 0,000 mm 0,5 UV-I 97 W/m 10,0 C 7,4 C 20,9 km/h (4 Bft) 100,00 %
12.09.2017 15:52 12,0 C 17,8 C 87 % 1011,0 hPa 0,0 l/m 18,5 km/h (3 Bft) W-SW 253 0 min 0,000 mm 0,5 UV-I 100 W/m 9,9 C 6,3 C 27,4 km/h (4 Bft) 100,00 %
12.09.2017 15:54 11,9 C 17,8 C 88 % 1011,0 hPa 0,0 l/m 14,6 km/h (3 Bft) SW 228 0 min 0,000 mm 0,5 UV-I 105 W/m 10,0 C 7,6 C 22,5 km/h (4 Bft) 97,87 %
12.09.2017 15:56 11,9 C 17,8 C 88 % 1011,0 hPa 0,0 l/m 13,1 km/h (3 Bft) W-SW 246 0 min 0,000 mm 0,5 UV-I 111 W/m 10,0 C 8,2 C 22,5 km/h (4 Bft) 100,00 %
12.09.2017 15:58 11,9 C 17,8 C 89 % 1011,0 hPa 0,0 l/m 9,9 km/h (2 Bft) SW 214 0 min 0,000 mm 0,5 UV-I 114 W/m 10,1 C 9,7 C 20,9 km/h (4 Bft) 97,87 %
12.09.2017 16:00 12,0 C 17,8 C 89 % 1011,1 hPa 0,0 l/m 14,2 km/h (3 Bft) S-SW 211 0 min 0,076 mm 0,5 UV-I 116 W/m 10,2 C 7,9 C 19,3 km/h (3 Bft) 98,11 %
12.09.2017 16:02 12,0 C 17,8 C 89 % 1011,0 hPa 0,0 l/m 14,2 km/h (3 Bft) W-SW 240 0 min 0,000 mm 0,5 UV-I 116 W/m 10,2 C 7,9 C 20,9 km/h (4 Bft) 97,44 %
12.09.2017 16:04 12,0 C 17,8 C 89 % 1011,0 hPa 0,0 l/m 14,2 km/h (3 Bft) SW 232 0 min 0,000 mm 0,5 UV-I 117 W/m 10,2 C 7,9 C 22,5 km/h (4 Bft) 98,21 %
12.09.2017 16:06 11,9 C 17,8 C 88 % 1011,0 hPa 0,0 l/m 15,3 km/h (3 Bft) W 259 0 min 0,000 mm 0,6 UV-I 121 W/m 10,0 C 7,3 C 27,4 km/h (4 Bft) 97,73 %
12.09.2017 16:08 11,9 C 17,8 C 88 % 1011,0 hPa 0,0 l/m 15,3 km/h (3 Bft) S-SW 211 0 min 0,000 mm 0,6 UV-I 131 W/m 10,0 C 7,3 C 29,0 km/h (5 Bft) 98,00 %
12.09.2017 16:10 12,0 C 17,8 C 88 % 1011,0 hPa 0,0 l/m 16,2 km/h (3 Bft) SW 225 0 min 0,000 mm 0,6 UV-I 134 W/m 10,1 C 7,1 C 24,1 km/h (4 Bft) 95,12 %
12.09.2017 16:12 12,0 C 17,8 C 88 % 1011,0 hPa 0,0 l/m 15,2 km/h (3 Bft) S-SW 208 0 min 0,000 mm 0,6 UV-I 128 W/m 10,1 C 7,5 C 25,7 km/h (4 Bft) 98,00 %
12.09.2017 16:14 12,0 C 17,8 C 87 % 1011,0 hPa 0,0 l/m 15,0 km/h (3 Bft) S-SW 194 0 min 0,000 mm 0,6 UV-I 117 W/m 9,9 C 7,6 C 25,7 km/h (4 Bft) 95,74 %
12.09.2017 16:16 11,9 C 17,8 C 87 % 1011,0 hPa 0,0 l/m 14,6 km/h (3 Bft) SW 215 0 min 0,000 mm 0,5 UV-I 109 W/m 9,8 C 7,6 C 24,1 km/h (4 Bft) 100,00 %
12.09.2017 16:18 12,0 C 17,8 C 87 % 1011,1 hPa 0,0 l/m 14,2 km/h (3 Bft) S-SW 204 0 min 0,000 mm 0,5 UV-I 105 W/m 9,9 C 7,9 C 19,3 km/h (3 Bft) 97,37 %
12.09.2017 16:20 12,0 C 17,8 C 87 % 1011,1 hPa 0,0 l/m 14,1 km/h (3 Bft) SW 220 0 min 0,000 mm 0,5 UV-I 105 W/m 9,9 C 7,9 C 24,1 km/h (4 Bft) 96,23 %
12.09.2017 16:23 12,0 C 17,8 C 87 % 1011,1 hPa 0,0 l/m 14,5 km/h (3 Bft) S-SW 213 0 min 0,000 mm 0,5 UV-I 110 W/m 9,9 C 7,8 C 22,5 km/h (4 Bft) 98,59 %
12.09.2017 16:24 12,0 C 17,8 C 87 % 1011,1 hPa 0,0 l/m 12,7 km/h (3 Bft) SW 216 0 min 0,000 mm 0,5 UV-I 113 W/m 9,9 C 8,5 C 17,7 km/h (3 Bft) 88,46 %
12.09.2017 16:26 12,0 C 17,8 C 87 % 1011,2 hPa 0,0 l/m 13,5 km/h (3 Bft) S-SW 200 0 min 0,000 mm 0,5 UV-I 119 W/m 9,9 C 8,2 C 20,9 km/h (4 Bft) 98,00 %
12.09.2017 16:28 12,0 C 17,8 C 87 % 1011,2 hPa 0,0 l/m 14,7 km/h (3 Bft) W-SW 251 0 min 0,000 mm 0,5 UV-I 119 W/m 9,9 C 7,7 C 20,9 km/h (4 Bft) 97,87 %
12.09.2017 16:30 12,1 C 17,8 C 87 % 1011,2 hPa 0,0 l/m 13,6 km/h (3 Bft) W-SW 244 0 min 0,000 mm 0,3 UV-I 115 W/m 10,0 C 8,2 C 24,1 km/h (4 Bft) 95,74 %
12.09.2017 16:32 12,1 C 17,8 C 87 % 1011,3 hPa 0,0 l/m 15,3 km/h (3 Bft) W-SW 242 0 min 0,000 mm 0,0 UV-I 110 W/m 10,0 C 7,6 C 20,9 km/h (4 Bft) 96,00 %
12.09.2017 16:34 12,1 C 17,8 C 86 % 1011,2 hPa 0,0 l/m 16,0 km/h (3 Bft) SW 232 0 min 0,000 mm 0,0 UV-I 110 W/m 9,8 C 7,3 C 24,1 km/h (4 Bft) 97,37 %
12.09.2017 16:36 12,1 C 17,8 C 86 % 1011,2 hPa 0,0 l/m 13,5 km/h (3 Bft) S-SW 199 0 min 0,000 mm 0,0 UV-I 114 W/m 9,8 C 8,3 C 22,5 km/h (4 Bft) 94,00 %
12.09.2017 16:38 12,1 C 17,8 C 86 % 1011,1 hPa 0,0 l/m 10,6 km/h (2 Bft) SW 230 0 min 0,000 mm 0,0 UV-I 117 W/m 9,8 C 9,6 C 19,3 km/h (3 Bft) 93,62 %
12.09.2017 16:40 12,1 C 17,8 C 86 % 1011,1 hPa 0,0 l/m 13,4 km/h (3 Bft) SW 222 0 min 0,000 mm 0,0 UV-I 118 W/m 9,8 C 8,3 C 19,3 km/h (3 Bft) 93,75 %
12.09.2017 16:42 12,1 C 17,8 C 86 % 1011,1 hPa 0,0 l/m 12,3 km/h (3 Bft) SW 224 0 min 0,000 mm 0,0 UV-I 116 W/m 9,8 C 8,8 C 19,3 km/h (3 Bft) 95,74 %
12.09.2017 16:44 12,1 C 17,8 C 86 % 1011,1 hPa 0,0 l/m 11,2 km/h (2 Bft) W-SW 240 0 min 0,000 mm 0,0 UV-I 114 W/m 9,8 C 9,3 C 16,1 km/h (3 Bft) 94,00 %
12.09.2017 16:46 12,1 C 17,8 C 86 % 1011,1 hPa 0,0 l/m 13,1 km/h (3 Bft) SW 234 0 min 0,000 mm 0,0 UV-I 111 W/m 9,8 C 8,4 C 19,3 km/h (3 Bft) 95,12 %
12.09.2017 16:48 12,1 C 17,8 C 86 % 1011,1 hPa 0,0 l/m 9,2 km/h (2 Bft) S-SW 198 0 min 0,000 mm 0,0 UV-I 107 W/m 9,8 C 10,3 C 16,1 km/h (3 Bft) 93,18 %
12.09.2017 16:50 12,2 C 17,8 C 86 % 1011,0 hPa 0,0 l/m 9,6 km/h (2 Bft) S-SW 211 0 min 0,000 mm 0,0 UV-I 104 W/m 9,9 C 10,2 C 16,1 km/h (3 Bft) 96,43 %
12.09.2017 16:52 12,2 C 17,8 C 86 % 1011,1 hPa 0,0 l/m 10,4 km/h (2 Bft) S-SW 209 0 min 0,000 mm 0,0 UV-I 100 W/m 9,9 C 9,8 C 16,1 km/h (3 Bft) 94,74 %
12.09.2017 16:54 12,2 C 17,8 C 87 % 1011,0 hPa 0,0 l/m 4,1 km/h (1 Bft) S-SO 159 0 min 0,000 mm 0,0 UV-I 100 W/m 10,1 C 12,2 C 6,4 km/h (2 Bft) 94,34 %
12.09.2017 16:56 12,2 C 17,8 C 87 % 1011,0 hPa 0,0 l/m 8,2 km/h (2 Bft) SW 221 0 min 0,000 mm 0,0 UV-I 102 W/m 10,1 C 11,0 C 14,5 km/h (3 Bft) 93,62 %
12.09.2017 16:58 12,2 C 17,8 C 87 % 1011,1 hPa 0,0 l/m 6,2 km/h (2 Bft) SW 227 0 min 0,000 mm 0,0 UV-I 103 W/m 10,1 C 12,2 C 12,9 km/h (3 Bft) 95,74 %
12.09.2017 17:00 12,2 C 17,8 C 87 % 1011,1 hPa 0,0 l/m 9,3 km/h (2 Bft) W-SW 238 0 min 0,077 mm 0,0 UV-I 101 W/m 10,1 C 10,4 C 16,1 km/h (3 Bft) 95,45 %
12.09.2017 17:02 12,2 C 17,8 C 87 % 1011,0 hPa 0,0 l/m 8,9 km/h (2 Bft) SW 215 0 min 0,000 mm 0,0 UV-I 98 W/m 10,1 C 10,6 C 14,5 km/h (3 Bft) 93,18 %
12.09.2017 17:04 12,2 C 17,8 C 87 % 1011,1 hPa 0,0 l/m 5,4 km/h (1 Bft) SW 227 0 min 0,000 mm 0,0 UV-I 97 W/m 10,1 C 12,2 C 8,0 km/h (2 Bft) 96,00 %
12.09.2017 17:06 12,2 C 17,8 C 86 % 1011,0 hPa 0,0 l/m 9,7 km/h (2 Bft) S-SW 194 0 min 0,000 mm 0,0 UV-I 99 W/m 9,9 C 10,2 C 16,1 km/h (3 Bft) 98,11 %
12.09.2017 17:08 12,2 C 17,8 C 86 % 1011,1 hPa 0,0 l/m 10,6 km/h (2 Bft) SW 222 0 min 0,000 mm 0,0 UV-I 108 W/m 9,9 C 9,7 C 20,9 km/h (4 Bft) 94,74 %
12.09.2017 17:10 12,2 C 17,8 C 85 % 1011,1 hPa 0,0 l/m 11,5 km/h (2 Bft) SW 228 0 min 0,000 mm 0,0 UV-I 119 W/m 9,8 C 9,3 C 16,1 km/h (3 Bft) 97,87 %
12.09.2017 17:12 12,3 C 17,8 C 85 % 1011,1 hPa 0,0 l/m 8,9 km/h (2 Bft) S 176 0 min 0,000 mm 0,0 UV-I 126 W/m 9,9 C 10,7 C 12,9 km/h (3 Bft) 100,00 %
12.09.2017 17:14 12,3 C 17,8 C 85 % 1011,0 hPa 0,0 l/m 11,3 km/h (2 Bft) S-SW 211 0 min 0,000 mm 0,0 UV-I 126 W/m 9,9 C 9,5 C 17,7 km/h (3 Bft) 98,57 %
12.09.2017 17:16 12,3 C 17,2 C 84 % 1011,0 hPa 0,0 l/m 10,9 km/h (2 Bft) SW 222 0 min 0,000 mm 0,0 UV-I 117 W/m 9,7 C 9,7 C 14,5 km/h (3 Bft) 100,00 %
12.09.2017 17:18 12,4 C 17,2 C 84 % 1011,0 hPa 0,0 l/m 9,0 km/h (2 Bft) SW 218 0 min 0,000 mm 0,0 UV-I 109 W/m 9,8 C 10,8 C 12,9 km/h (3 Bft) 98,18 %
12.09.2017 17:20 12,4 C 17,2 C 84 % 1011,0 hPa 0,0 l/m 10,5 km/h (2 Bft) SW 220 0 min 0,000 mm 0,0 UV-I 101 W/m 9,8 C 10,0 C 20,9 km/h (4 Bft) 100,00 %
12.09.2017 17:22 12,4 C 17,2 C 83 % 1011,0 hPa 0,0 l/m 10,2 km/h (2 Bft) SW 218 0 min 0,000 mm 0,0 UV-I 95 W/m 9,6 C 10,1 C 16,1 km/h (3 Bft) 100,00 %
12.09.2017 17:24 12,4 C 17,2 C 83 % 1011,0 hPa 0,0 l/m 9,7 km/h (2 Bft) W-SW 237 0 min 0,000 mm 0,0 UV-I 90 W/m 9,6 C 10,4 C 14,5 km/h (3 Bft) 98,11 %
12.09.2017 17:26 12,4 C 17,2 C 83 % 1011,1 hPa 0,0 l/m 7,7 km/h (2 Bft) S-SW 211 0 min 0,000 mm 0,0 UV-I 87 W/m 9,6 C 11,6 C 12,9 km/h (3 Bft) 97,87 %
12.09.2017 17:28 12,4 C 17,2 C 83 % 1011,1 hPa 0,0 l/m 11,9 km/h (2 Bft) W-SW 244 0 min 0,000 mm 0,0 UV-I 86 W/m 9,6 C 9,3 C 17,7 km/h (3 Bft) 100,00 %
12.09.2017 17:30 12,4 C 17,2 C 83 % 1011,1 hPa 0,0 l/m 9,9 km/h (2 Bft) SW 228 0 min 0,000 mm 0,0 UV-I 86 W/m 9,6 C 10,3 C 17,7 km/h (3 Bft) 100,00 %
12.09.2017 17:32 12,4 C 17,2 C 83 % 1011,0 hPa 0,0 l/m 10,4 km/h (2 Bft) SW 236 0 min 0,000 mm 0,0 UV-I 84 W/m 9,6 C 10,0 C 16,1 km/h (3 Bft) 100,00 %
12.09.2017 17:34 12,4 C 17,2 C 83 % 1011,0 hPa 0,0 l/m 10,1 km/h (2 Bft) S-SW 212 0 min 0,000 mm 0,0 UV-I 83 W/m 9,6 C 10,2 C 16,1 km/h (3 Bft) 100,00 %
12.09.2017 17:36 12,4 C 17,2 C 83 % 1011,0 hPa 0,0 l/m 10,3 km/h (2 Bft) SW 217 0 min 0,000 mm 0,0 UV-I 83 W/m 9,6 C 10,1 C 16,1 km/h (3 Bft) 100,00 %
12.09.2017 17:38 12,4 C 17,2 C 83 % 1011,1 hPa 0,0 l/m 12,9 km/h (3 Bft) W-SW 242 0 min 0,000 mm 0,0 UV-I 85 W/m 9,6 C 8,9 C 17,7 km/h (3 Bft) 100,00 %
12.09.2017 17:40 12,4 C 17,2 C 83 % 1011,1 hPa 0,0 l/m 11,1 km/h (2 Bft) SW 214 0 min 0,000 mm 0,0 UV-I 89 W/m 9,6 C 9,7 C 17,7 km/h (3 Bft) 100,00 %
12.09.2017 17:42 12,4 C 17,2 C 83 % 1011,1 hPa 0,0 l/m 11,8 km/h (2 Bft) SW 217 0 min 0,000 mm 0,0 UV-I 93 W/m 9,6 C 9,4 C 16,1 km/h (3 Bft) 100,00 %
12.09.2017 17:44 12,4 C 17,2 C 84 % 1011,1 hPa 0,0 l/m 11,1 km/h (2 Bft) W-SW 257 0 min 0,000 mm 0,0 UV-I 98 W/m 9,8 C 9,7 C 16,1 km/h (3 Bft) 100,00 %
12.09.2017 17:46 12,4 C 17,2 C 84 % 1011,1 hPa 0,0 l/m 8,2 km/h (2 Bft) SW 222 0 min 0,000 mm 0,0 UV-I 106 W/m 9,8 C 11,3 C 14,5 km/h (3 Bft) 98,11 %
12.09.2017 17:48 12,4 C 17,2 C 84 % 1011,1 hPa 0,0 l/m 8,5 km/h (2 Bft) W-SW 239 0 min 0,000 mm 0,0 UV-I 112 W/m 9,8 C 11,1 C 14,5 km/h (3 Bft) 97,37 %
12.09.2017 17:50 12,5 C 17,2 C 84 % 1011,1 hPa 0,0 l/m 10,8 km/h (2 Bft) SW 227 0 min 0,000 mm 0,0 UV-I 118 W/m 9,9 C 10,0 C 14,5 km/h (3 Bft) 100,00 %
12.09.2017 17:52 12,5 C 17,2 C 84 % 1011,1 hPa 0,0 l/m 9,5 km/h (2 Bft) S-SW 209 0 min 0,000 mm 0,0 UV-I 126 W/m 9,9 C 10,6 C 16,1 km/h (3 Bft) 100,00 %
12.09.2017 17:54 12,5 C 17,2 C 84 % 1011,1 hPa 0,0 l/m 7,5 km/h (2 Bft) S-SW 198 0 min 0,000 mm 0,0 UV-I 129 W/m 9,9 C 11,8 C 11,3 km/h (2 Bft) 100,00 %
12.09.2017 17:56 12,6 C 17,2 C 84 % 1011,1 hPa 0,0 l/m 7,8 km/h (2 Bft) SW 221 2 min 0,000 mm 0,0 UV-I 130 W/m 10,0 C 11,7 C 11,3 km/h (2 Bft) 97,92 %
12.09.2017 17:58 12,6 C 17,2 C 84 % 1011,1 hPa 0,0 l/m 9,1 km/h (2 Bft) W-SW 238 2 min 0,000 mm 0,0 UV-I 127 W/m 10,0 C 10,9 C 12,9 km/h (3 Bft) 100,00 %
12.09.2017 18:00 12,6 C 17,2 C 84 % 1011,1 hPa 0,0 l/m 8,1 km/h (2 Bft) S-SW 211 0 min 0,000 mm 0,0 UV-I 120 W/m 10,0 C 11,5 C 16,1 km/h (3 Bft) 100,00 %
12.09.2017 18:02 12,6 C 17,2 C 84 % 1011,1 hPa 0,0 l/m 11,5 km/h (2 Bft) SW 225 0 min 0,076 mm 0,0 UV-I 114 W/m 10,0 C 9,7 C 20,9 km/h (4 Bft) 100,00 %
12.09.2017 18:04 12,7 C 17,2 C 84 % 1011,1 hPa 0,0 l/m 11,0 km/h (2 Bft) SW 222 0 min 0,000 mm 0,0 UV-I 107 W/m 10,1 C 10,1 C 20,9 km/h (4 Bft) 98,11 %
12.09.2017 18:06 12,7 C 17,2 C 84 % 1011,1 hPa 0,0 l/m 9,6 km/h (2 Bft) W-SW 248 0 min 0,000 mm 0,0 UV-I 100 W/m 10,1 C 10,8 C 17,7 km/h (3 Bft) 100,00 %
12.09.2017 18:08 12,7 C 17,2 C 84 % 1011,1 hPa 0,0 l/m 7,7 km/h (2 Bft) W-SW 245 0 min 0,000 mm 0,0 UV-I 93 W/m 10,1 C 11,9 C 12,9 km/h (3 Bft) 100,00 %
12.09.2017 18:10 12,7 C 17,2 C 84 % 1011,1 hPa 0,0 l/m 9,0 km/h (2 Bft) W-SW 242 0 min 0,000 mm 0,0 UV-I 87 W/m 10,1 C 11,1 C 14,5 km/h (3 Bft) 100,00 %
12.09.2017 18:12 12,7 C 17,2 C 84 % 1011,2 hPa 0,0 l/m 8,8 km/h (2 Bft) SW 220 0 min 0,000 mm 0,0 UV-I 79 W/m 10,1 C 11,2 C 14,5 km/h (3 Bft) 100,00 %
12.09.2017 18:14 12,7 C 17,2 C 84 % 1011,2 hPa 0,0 l/m 8,9 km/h (2 Bft) W 279 0 min 0,000 mm 0,0 UV-I 71 W/m 10,1 C 11,2 C 14,5 km/h (3 Bft) 100,00 %
12.09.2017 18:16 12,7 C 17,2 C 84 % 1011,2 hPa 0,0 l/m 7,3 km/h (2 Bft) W-SW 253 0 min 0,000 mm 0,0 UV-I 65 W/m 10,1 C 12,1 C 16,1 km/h (3 Bft) 98,00 %
12.09.2017 18:18 12,7 C 17,2 C 84 % 1011,2 hPa 0,0 l/m 11,4 km/h (2 Bft) SW 214 0 min 0,000 mm 0,0 UV-I 60 W/m 10,1 C 9,9 C 17,7 km/h (3 Bft) 100,00 %
12.09.2017 18:20 12,7 C 17,2 C 84 % 1011,2 hPa 0,0 l/m 11,8 km/h (2 Bft) S-SW 196 0 min 0,000 mm 0,0 UV-I 56 W/m 10,1 C 9,7 C 16,1 km/h (3 Bft) 100,00 %
12.09.2017 18:22 12,7 C 17,2 C 84 % 1011,3 hPa 0,0 l/m 10,3 km/h (2 Bft) SW 232 0 min 0,000 mm 0,0 UV-I 52 W/m 10,1 C 10,4 C 16,1 km/h (3 Bft) 100,00 %
12.09.2017 18:24 12,7 C 17,2 C 84 % 1011,3 hPa 0,0 l/m 7,7 km/h (2 Bft) SW 229 0 min 0,000 mm 0,0 UV-I 48 W/m 10,1 C 11,9 C 12,9 km/h (3 Bft) 97,87 %
12.09.2017 18:26 12,7 C 17,2 C 84 % 1011,2 hPa 0,0 l/m 9,8 km/h (2 Bft) W-SW 240 0 min 0,000 mm 0,0 UV-I 42 W/m 10,1 C 10,7 C 12,9 km/h (3 Bft) 100,00 %
12.09.2017 18:28 12,6 C 17,2 C 84 % 1011,3 hPa 0,0 l/m 9,5 km/h (2 Bft) SW 223 0 min 0,000 mm 0,0 UV-I 38 W/m 10,0 C 10,7 C 16,1 km/h (3 Bft) 100,00 %
12.09.2017 18:30 12,6 C 17,2 C 84 % 1011,2 hPa 0,0 l/m 9,2 km/h (2 Bft) SW 236 0 min 0,000 mm 0,0 UV-I 33 W/m 10,0 C 10,9 C 14,5 km/h (3 Bft) 97,44 %
12.09.2017 18:32 12,6 C 17,2 C 85 % 1011,2 hPa 0,0 l/m 9,5 km/h (2 Bft) W 265 0 min 0,000 mm 0,0 UV-I 30 W/m 10,1 C 10,7 C 14,5 km/h (3 Bft) 100,00 %
12.09.2017 18:34 12,6 C 17,2 C 85 % 1011,2 hPa 0,0 l/m 8,8 km/h (2 Bft) W-SW 239 0 min 0,000 mm 0,0 UV-I 28 W/m 10,1 C 11,1 C 12,9 km/h (3 Bft) 96,30 %
12.09.2017 18:36 12,6 C 17,2 C 84 % 1011,3 hPa 0,0 l/m 9,3 km/h (2 Bft) SW 229 0 min 0,000 mm 0,0 UV-I 26 W/m 10,0 C 10,8 C 14,5 km/h (3 Bft) 98,46 %
12.09.2017 18:38 12,6 C 17,2 C 84 % 1011,2 hPa 0,0 l/m 10,2 km/h (2 Bft) W-SW 242 0 min 0,000 mm 0,0 UV-I 24 W/m 10,0 C 10,4 C 14,5 km/h (3 Bft) 98,08 %
12.09.2017 18:40 12,5 C 17,2 C 84 % 1011,3 hPa 0,0 l/m 9,1 km/h (2 Bft) SW 220 0 min 0,000 mm 0,0 UV-I 23 W/m 9,9 C 10,8 C 12,9 km/h (3 Bft) 97,78 %
12.09.2017 18:42 12,5 C 17,2 C 85 % 1011,3 hPa 0,0 l/m 7,6 km/h (2 Bft) SW 232 0 min 0,000 mm 0,0 UV-I 24 W/m 10,0 C 11,7 C 11,3 km/h (2 Bft) 97,73 %
12.09.2017 18:44 12,5 C 17,2 C 85 % 1011,3 hPa 0,0 l/m 9,0 km/h (2 Bft) W-SW 243 0 min 0,000 mm 0,0 UV-I 28 W/m 10,0 C 10,9 C 12,9 km/h (3 Bft) 98,00 %
12.09.2017 18:46 12,5 C 17,2 C 85 % 1011,3 hPa 0,0 l/m 10,0 km/h (2 Bft) W-SW 252 0 min 0,000 mm 0,0 UV-I 22 W/m 10,0 C 10,4 C 16,1 km/h (3 Bft) 97,56 %
12.09.2017 18:48 12,4 C 17,2 C 85 % 1011,4 hPa 0,0 l/m 7,8 km/h (2 Bft) SW 235 0 min 0,000 mm 0,0 UV-I 21 W/m 9,9 C 11,5 C 14,5 km/h (3 Bft) 96,00 %
12.09.2017 18:50 12,4 C 17,2 C 85 % 1011,4 hPa 0,0 l/m 9,5 km/h (2 Bft) W-SW 248 0 min 0,000 mm 0,0 UV-I 21 W/m 9,9 C 10,5 C 14,5 km/h (3 Bft) 100,00 %
12.09.2017 18:52 12,4 C 17,2 C 85 % 1011,4 hPa 0,0 l/m 10,2 km/h (2 Bft) W-SW 256 0 min 0,000 mm 0,0 UV-I 24 W/m 9,9 C 10,1 C 16,1 km/h (3 Bft) 97,47 %
12.09.2017 18:54 12,4 C 17,2 C 85 % 1011,4 hPa 0,0 l/m 8,6 km/h (2 Bft) W-SW 245 0 min 0,000 mm 0,0 UV-I 25 W/m 9,9 C 11,0 C 12,9 km/h (3 Bft) 96,23 %
12.09.2017 18:56 12,4 C 17,2 C 85 % 1011,4 hPa 0,0 l/m 10,0 km/h (2 Bft) SW 232 0 min 0,000 mm 0,0 UV-I 27 W/m 9,9 C 10,2 C 14,5 km/h (3 Bft) 97,37 %
12.09.2017 18:58 12,4 C 17,2 C 85 % 1011,3 hPa 0,0 l/m 9,2 km/h (2 Bft) SW 219 0 min 0,000 mm 0,0 UV-I 30 W/m 9,9 C 10,7 C 14,5 km/h (3 Bft) 97,56 %
12.09.2017 19:00 12,4 C 17,2 C 85 % 1011,4 hPa 0,0 l/m 9,0 km/h (2 Bft) SW 236 2 min 0,051 mm 0,0 UV-I 32 W/m 9,9 C 10,8 C 12,9 km/h (3 Bft) 96,23 %
12.09.2017 19:02 12,4 C 17,2 C 85 % 1011,4 hPa 0,0 l/m 9,2 km/h (2 Bft) W-SW 237 2 min 0,000 mm 0,0 UV-I 32 W/m 9,9 C 10,7 C 16,1 km/h (3 Bft) 97,56 %
12.09.2017 19:04 12,4 C 17,2 C 85 % 1011,4 hPa 0,0 l/m 9,0 km/h (2 Bft) SW 229 2 min 0,000 mm 0,0 UV-I 29 W/m 9,9 C 10,8 C 12,9 km/h (3 Bft) 96,43 %
12.09.2017 19:06 12,4 C 17,2 C 85 % 1011,4 hPa 0,0 l/m 9,0 km/h (2 Bft) W-SW 257 2 min 0,000 mm 0,0 UV-I 26 W/m 9,9 C 10,8 C 12,9 km/h (3 Bft) 95,74 %
12.09.2017 19:08 12,4 C 17,2 C 85 % 1011,4 hPa 0,0 l/m 7,6 km/h (2 Bft) W-SW 238 2 min 0,000 mm 0,0 UV-I 26 W/m 9,9 C 11,6 C 14,5 km/h (3 Bft) 97,87 %
12.09.2017 19:10 12,4 C 17,2 C 86 % 1011,5 hPa 0,0 l/m 9,7 km/h (2 Bft) W-SW 244 2 min 0,000 mm 0,0 UV-I 25 W/m 10,1 C 10,4 C 16,1 km/h (3 Bft) 97,87 %
12.09.2017 19:12 12,4 C 17,2 C 86 % 1011,5 hPa 0,0 l/m 8,6 km/h (2 Bft) SW 216 2 min 0,000 mm 0,0 UV-I 16 W/m 10,1 C 11,0 C 12,9 km/h (3 Bft) 97,56 %
12.09.2017 19:14 12,4 C 17,2 C 86 % 1011,5 hPa 0,0 l/m 8,4 km/h (2 Bft) SW 231 0 min 0,000 mm 0,0 UV-I 10 W/m 10,1 C 11,1 C 14,5 km/h (3 Bft) 100,00 %
12.09.2017 19:16 12,4 C 17,2 C 86 % 1011,5 hPa 0,0 l/m 8,0 km/h (2 Bft) SW 229 0 min 0,000 mm 0,0 UV-I 4 W/m 10,1 C 11,4 C 12,9 km/h (3 Bft) 100,00 %
12.09.2017 19:18 12,3 C 17,2 C 86 % 1011,5 hPa 0,0 l/m 8,3 km/h (2 Bft) SW 227 0 min 0,000 mm 0,0 UV-I 26 W/m 10,0 C 11,1 C 12,9 km/h (3 Bft) 97,44 %
12.09.2017 19:20 12,3 C 17,2 C 86 % 1011,5 hPa 0,0 l/m 10,3 km/h (2 Bft) SW 223 0 min 0,000 mm 0,0 UV-I 22 W/m 10,0 C 10,0 C 16,1 km/h (3 Bft) 98,00 %
12.09.2017 19:22 12,3 C 17,2 C 86 % 1011,5 hPa 0,0 l/m 8,1 km/h (2 Bft) W-SW 239 0 min 0,000 mm 0,0 UV-I 18 W/m 10,0 C 11,2 C 12,9 km/h (3 Bft) 97,87 %
12.09.2017 19:24 12,3 C 17,2 C 86 % 1011,6 hPa 0,0 l/m 7,7 km/h (2 Bft) W-SW 237 0 min 0,000 mm 0,0 UV-I 15 W/m 10,0 C 11,5 C 14,5 km/h (3 Bft) 100,00 %
12.09.2017 19:26 12,3 C 17,2 C 86 % 1011,6 hPa 0,0 l/m 8,2 km/h (2 Bft) W-SW 238 0 min 0,000 mm 0,0 UV-I 12 W/m 10,0 C 11,1 C 11,3 km/h (2 Bft) 100,00 %
12.09.2017 19:28 12,2 C 17,2 C 86 % 1011,6 hPa 0,0 l/m 8,1 km/h (2 Bft) SW 232 0 min 0,000 mm 0,0 UV-I 9 W/m 9,9 C 11,1 C 11,3 km/h (2 Bft) 100,00 %
12.09.2017 19:30 12,2 C 17,2 C 86 % 1011,7 hPa 0,0 l/m 11,4 km/h (2 Bft) SW 228 0 min 0,000 mm 0,0 UV-I 7 W/m 9,9 C 9,3 C 16,1 km/h (3 Bft) 100,00 %
12.09.2017 19:32 12,2 C 17,2 C 86 % 1011,6 hPa 0,0 l/m 8,5 km/h (2 Bft) SW 232 0 min 0,000 mm 0,0 UV-I 5 W/m 9,9 C 10,9 C 11,3 km/h (2 Bft) 100,00 %
12.09.2017 19:34 12,2 C 17,2 C 86 % 1011,6 hPa 0,0 l/m 8,9 km/h (2 Bft) SW 235 0 min 0,000 mm 0,0 UV-I 5 W/m 9,9 C 10,6 C 14,5 km/h (3 Bft) 100,00 %
12.09.2017 19:36 12,1 C 17,2 C 86 % 1011,6 hPa 0,0 l/m 9,5 km/h (2 Bft) SW 234 0 min 0,000 mm 0,0 UV-I 3 W/m 9,8 C 10,2 C 14,5 km/h (3 Bft) 100,00 %
12.09.2017 19:38 12,1 C 17,2 C 86 % 1011,6 hPa 0,0 l/m 11,6 km/h (2 Bft) W-SW 243 0 min 0,000 mm 0,0 UV-I 0 W/m 9,8 C 9,1 C 19,3 km/h (3 Bft) 98,00 %
12.09.2017 19:40 12,1 C 17,2 C 86 % 1011,8 hPa 0,0 l/m 12,6 km/h (3 Bft) W-SW 253 0 min 0,000 mm 0,0 UV-I 0 W/m 9,8 C 8,7 C 17,7 km/h (3 Bft) 100,00 %
12.09.2017 19:42 12,1 C 17,2 C 85 % 1011,8 hPa 0,0 l/m 12,7 km/h (3 Bft) SW 223 0 min 0,000 mm 0,0 UV-I 0 W/m 9,7 C 8,6 C 17,7 km/h (3 Bft) 97,73 %
12.09.2017 19:44 12,1 C 17,2 C 85 % 1011,8 hPa 0,0 l/m 9,9 km/h (2 Bft) W-SW 241 0 min 0,000 mm 0,0 UV-I 0 W/m 9,7 C 10,0 C 16,1 km/h (3 Bft) 97,56 %
12.09.2017 19:46 12,0 C 17,2 C 85 % 1011,8 hPa 0,0 l/m 9,5 km/h (2 Bft) SW 229 0 min 0,000 mm 0,0 UV-I 0 W/m 9,6 C 10,1 C 14,5 km/h (3 Bft) 96,23 %
12.09.2017 19:48 12,0 C 17,2 C 85 % 1011,8 hPa 0,0 l/m 9,1 km/h (2 Bft) SW 225 0 min 0,000 mm 0,0 UV-I 0 W/m 9,6 C 10,3 C 16,1 km/h (3 Bft) 92,00 %
12.09.2017 19:50 12,0 C 17,2 C 85 % 1011,9 hPa 0,0 l/m 9,2 km/h (2 Bft) S-SW 200 0 min 0,000 mm 0,0 UV-I 0 W/m 9,6 C 10,2 C 14,5 km/h (3 Bft) 97,62 %
12.09.2017 19:52 11,9 C 17,2 C 85 % 1011,9 hPa 0,0 l/m 10,5 km/h (2 Bft) SW 225 0 min 0,000 mm 0,0 UV-I 0 W/m 9,5 C 9,4 C 17,7 km/h (3 Bft) 98,08 %
12.09.2017 19:54 11,9 C 17,2 C 85 % 1012,0 hPa 0,0 l/m 11,0 km/h (2 Bft) SW 227 0 min 0,000 mm 0,0 UV-I 0 W/m 9,5 C 9,2 C 16,1 km/h (3 Bft) 97,44 %
12.09.2017 19:56 11,9 C 17,2 C 85 % 1012,0 hPa 0,0 l/m 8,7 km/h (2 Bft) SW 228 0 min 0,000 mm 0,0 UV-I 0 W/m 9,5 C 10,4 C 14,5 km/h (3 Bft) 98,11 %
12.09.2017 19:58 11,8 C 17,2 C 85 % 1012,1 hPa 0,0 l/m 9,2 km/h (2 Bft) SW 232 0 min 0,000 mm 0,0 UV-I 0 W/m 9,4 C 10,0 C 14,5 km/h (3 Bft) 98,00 %
12.09.2017 20:00 11,8 C 17,2 C 85 % 1012,1 hPa 0,0 l/m 8,0 km/h (2 Bft) SW 228 0 min 0,025 mm 0,0 UV-I 0 W/m 9,4 C 10,7 C 12,9 km/h (3 Bft) 94,74 %
12.09.2017 20:02 11,8 C 17,2 C 86 % 1012,2 hPa 0,0 l/m 9,4 km/h (2 Bft) SW 233 0 min 0,000 mm 0,0 UV-I 0 W/m 9,5 C 9,9 C 12,9 km/h (3 Bft) 97,73 %
12.09.2017 20:04 11,7 C 17,2 C 86 % 1012,3 hPa 0,0 l/m 8,1 km/h (2 Bft) SW 236 0 min 0,000 mm 0,0 UV-I 0 W/m 9,4 C 10,6 C 12,9 km/h (3 Bft) 98,31 %
12.09.2017 20:06 11,7 C 17,2 C 86 % 1012,3 hPa 0,0 l/m 6,5 km/h (2 Bft) SW 227 0 min 0,000 mm 0,0 UV-I 0 W/m 9,4 C 11,7 C 11,3 km/h (2 Bft) 97,14 %
12.09.2017 20:08 11,7 C 17,2 C 86 % 1012,4 hPa 0,0 l/m 6,3 km/h (2 Bft) W 262 0 min 0,000 mm 0,0 UV-I 0 W/m 9,4 C 11,7 C 9,7 km/h (2 Bft) 98,11 %
12.09.2017 20:10 11,6 C 17,2 C 86 % 1012,4 hPa 0,0 l/m 6,1 km/h (2 Bft) W-SW 257 0 min 0,000 mm 0,0 UV-I 0 W/m 9,3 C 11,6 C 14,5 km/h (3 Bft) 97,37 %
12.09.2017 20:13 11,6 C 17,2 C 86 % 1012,6 hPa 0,0 l/m 7,0 km/h (2 Bft) W-SW 238 0 min 0,000 mm 0,0 UV-I 0 W/m 9,3 C 11,2 C 11,3 km/h (2 Bft) 96,47 %
12.09.2017 20:14 11,6 C 17,2 C 86 % 1012,6 hPa 0,0 l/m 8,7 km/h (2 Bft) SW 234 0 min 0,000 mm 0,0 UV-I 0 W/m 9,3 C 10,1 C 12,9 km/h (3 Bft) 100,00 %
12.09.2017 20:16 11,6 C 17,2 C 86 % 1012,6 hPa 0,0 l/m 6,9 km/h (2 Bft) W 265 0 min 0,000 mm 0,0 UV-I 0 W/m 9,3 C 11,3 C 12,9 km/h (3 Bft) 96,23 %
12.09.2017 20:18 11,6 C 17,2 C 86 % 1012,7 hPa 0,0 l/m 7,9 km/h (2 Bft) SW 236 0 min 0,000 mm 0,0 UV-I 0 W/m 9,3 C 10,6 C 16,1 km/h (3 Bft) 97,73 %
12.09.2017 20:20 11,6 C 17,2 C 86 % 1012,7 hPa 0,0 l/m 8,3 km/h (2 Bft) SW 234 0 min 0,000 mm 0,0 UV-I 0 W/m 9,3 C 10,3 C 14,5 km/h (3 Bft) 100,00 %
12.09.2017 20:22 11,6 C 17,2 C 86 % 1012,8 hPa 0,0 l/m 9,4 km/h (2 Bft) SW 222 0 min 0,000 mm 0,0 UV-I 0 W/m 9,3 C 9,7 C 12,9 km/h (3 Bft) 97,56 %
12.09.2017 20:24 11,6 C 17,2 C 86 % 1012,8 hPa 0,0 l/m 8,8 km/h (2 Bft) W-SW 246 0 min 0,000 mm 0,0 UV-I 0 W/m 9,3 C 10,0 C 12,9 km/h (3 Bft) 98,00 %
12.09.2017 20:26 11,6 C 17,2 C 86 % 1012,8 hPa 0,0 l/m 10,9 km/h (2 Bft) W 259 0 min 0,000 mm 0,0 UV-I 0 W/m 9,3 C 8,9 C 17,7 km/h (3 Bft) 97,44 %
12.09.2017 20:28 11,6 C 17,2 C 85 % 1012,8 hPa 0,0 l/m 8,3 km/h (2 Bft) SW 230 0 min 0,000 mm 0,0 UV-I 0 W/m 9,2 C 10,3 C 16,1 km/h (3 Bft) 96,23 %
12.09.2017 20:30 11,6 C 17,2 C 85 % 1012,8 hPa 0,0 l/m 7,6 km/h (2 Bft) SW 226 0 min 0,000 mm 0,0 UV-I 0 W/m 9,2 C 10,8 C 14,5 km/h (3 Bft) 96,00 %
12.09.2017 20:32 11,7 C 17,2 C 85 % 1012,8 hPa 0,0 l/m 6,6 km/h (2 Bft) SW 223 0 min 0,000 mm 0,0 UV-I 0 W/m 9,3 C 11,6 C 9,7 km/h (2 Bft) 96,00 %
12.09.2017 20:34 11,7 C 17,2 C 85 % 1012,8 hPa 0,0 l/m 6,4 km/h (2 Bft) W-SW 252 0 min 0,000 mm 0,0 UV-I 0 W/m 9,3 C 11,7 C 9,7 km/h (2 Bft) 97,37 %
12.09.2017 20:36 11,7 C 17,2 C 85 % 1012,9 hPa 0,0 l/m 5,3 km/h (1 Bft) W-SW 244 0 min 0,000 mm 0,0 UV-I 0 W/m 9,3 C 11,7 C 8,0 km/h (2 Bft) 96,43 %
12.09.2017 20:38 11,7 C 17,2 C 85 % 1012,9 hPa 0,0 l/m 4,3 km/h (1 Bft) W-SW 245 0 min 0,000 mm 0,0 UV-I 0 W/m 9,3 C 11,7 C 8,0 km/h (2 Bft) 97,37 %
12.09.2017 20:40 11,7 C 17,2 C 85 % 1012,9 hPa 0,0 l/m 5,3 km/h (1 Bft) W 259 0 min 0,000 mm 0,0 UV-I 0 W/m 9,3 C 11,7 C 6,4 km/h (2 Bft) 96,00 %
12.09.2017 20:42 11,7 C 17,2 C 85 % 1012,9 hPa 0,0 l/m 4,4 km/h (1 Bft) W-SW 244 0 min 0,000 mm 0,0 UV-I 0 W/m 9,3 C 11,7 C 8,0 km/h (2 Bft) 96,00 %
12.09.2017 20:44 11,7 C 17,2 C 85 % 1013,0 hPa 0,0 l/m 6,2 km/h (2 Bft) W 261 0 min 0,000 mm 0,0 UV-I 0 W/m 9,3 C 11,7 C 11,3 km/h (2 Bft) 93,62 %
12.09.2017 20:46 11,7 C 17,2 C 85 % 1013,1 hPa 0,0 l/m 5,1 km/h (1 Bft) SW 223 0 min 0,000 mm 0,0 UV-I 0 W/m 9,3 C 11,7 C 9,7 km/h (2 Bft) 97,87 %
12.09.2017 20:48 11,7 C 17,2 C 85 % 1013,1 hPa 0,0 l/m 7,4 km/h (2 Bft) W 266 0 min 0,000 mm 0,0 UV-I 0 W/m 9,3 C 11,0 C 11,3 km/h (2 Bft) 95,12 %
12.09.2017 20:50 11,7 C 17,2 C 85 % 1013,1 hPa 0,0 l/m 8,4 km/h (2 Bft) W 271 0 min 0,000 mm 0,0 UV-I 0 W/m 9,3 C 10,4 C 12,9 km/h (3 Bft) 96,23 %
12.09.2017 20:53 11,8 C 17,2 C 84 % 1013,1 hPa 0,0 l/m 11,2 km/h (2 Bft) W 259 0 min 0,000 mm 0,0 UV-I 0 W/m 9,2 C 9,0 C 17,7 km/h (3 Bft) 98,46 %
12.09.2017 20:54 11,8 C 17,2 C 84 % 1013,1 hPa 0,0 l/m 8,5 km/h (2 Bft) W-SW 239 0 min 0,000 mm 0,0 UV-I 0 W/m 9,2 C 10,4 C 12,9 km/h (3 Bft) 96,15 %
12.09.2017 20:56 11,8 C 17,2 C 84 % 1013,1 hPa 0,0 l/m 11,7 km/h (2 Bft) SW 229 0 min 0,000 mm 0,0 UV-I 0 W/m 9,2 C 8,7 C 16,1 km/h (3 Bft) 96,23 %
12.09.2017 20:58 11,8 C 17,2 C 84 % 1013,1 hPa 0,0 l/m 9,9 km/h (2 Bft) W-SW 255 0 min 0,000 mm 0,0 UV-I 0 W/m 9,2 C 9,6 C 14,5 km/h (3 Bft) 95,83 %
12.09.2017 21:00 11,8 C 17,2 C 84 % 1013,1 hPa 0,0 l/m 10,5 km/h (2 Bft) W-SW 245 0 min 0,025 mm 0,0 UV-I 0 W/m 9,2 C 9,3 C 16,1 km/h (3 Bft) 98,36 %
12.09.2017 21:02 11,9 C 17,2 C 84 % 1013,1 hPa 0,0 l/m 11,3 km/h (2 Bft) W-SW 243 0 min 0,000 mm 0,0 UV-I 0 W/m 9,3 C 9,0 C 14,5 km/h (3 Bft) 97,62 %
12.09.2017 21:04 11,9 C 17,2 C 84 % 1013,1 hPa 0,0 l/m 9,4 km/h (2 Bft) S-SW 197 0 min 0,000 mm 0,0 UV-I 0 W/m 9,3 C 10,0 C 16,1 km/h (3 Bft) 98,28 %
12.09.2017 21:06 11,9 C 17,2 C 83 % 1013,2 hPa 0,0 l/m 11,9 km/h (2 Bft) S-SW 213 0 min 0,000 mm 0,0 UV-I 0 W/m 9,1 C 8,7 C 17,7 km/h (3 Bft) 94,87 %
12.09.2017 21:08 11,9 C 17,2 C 83 % 1013,2 hPa 0,0 l/m 10,0 km/h (2 Bft) SW 235 0 min 0,000 mm 0,0 UV-I 0 W/m 9,1 C 9,7 C 17,7 km/h (3 Bft) 96,15 %
12.09.2017 21:10 11,9 C 17,2 C 83 % 1013,2 hPa 0,0 l/m 14,5 km/h (3 Bft) W-SW 254 0 min 0,000 mm 0,0 UV-I 0 W/m 9,1 C 7,6 C 24,1 km/h (4 Bft) 97,78 %
12.09.2017 21:12 11,9 C 17,2 C 83 % 1013,2 hPa 0,0 l/m 14,2 km/h (3 Bft) SW 234 0 min 0,000 mm 0,0 UV-I 0 W/m 9,1 C 7,8 C 20,9 km/h (4 Bft) 97,87 %
12.09.2017 21:14 11,9 C 17,2 C 83 % 1013,3 hPa 0,0 l/m 10,7 km/h (2 Bft) SW 218 0 min 0,000 mm 0,0 UV-I 0 W/m 9,1 C 9,3 C 16,1 km/h (3 Bft) 98,11 %
12.09.2017 21:16 11,8 C 17,2 C 83 % 1013,3 hPa 0,0 l/m 11,0 km/h (2 Bft) W-SW 239 0 min 0,000 mm 0,0 UV-I 0 W/m 9,0 C 9,1 C 14,5 km/h (3 Bft) 97,73 %
12.09.2017 21:18 11,8 C 17,2 C 83 % 1013,4 hPa 0,0 l/m 12,4 km/h (3 Bft) W-SW 251 0 min 0,000 mm 0,0 UV-I 0 W/m 9,0 C 8,4 C 17,7 km/h (3 Bft) 100,00 %
12.09.2017 21:20 11,8 C 17,2 C 83 % 1013,5 hPa 0,2 l/m 12,3 km/h (3 Bft) SW 232 0 min 0,000 mm 0,0 UV-I 0 W/m 9,0 C 8,4 C 19,3 km/h (3 Bft) 100,00 %
12.09.2017 21:22 11,8 C 17,2 C 83 % 1013,4 hPa 0,0 l/m 12,0 km/h (2 Bft) W-SW 240 0 min 0,000 mm 0,0 UV-I 0 W/m 9,0 C 8,6 C 19,3 km/h (3 Bft) 100,00 %
12.09.2017 21:24 11,8 C 17,2 C 83 % 1013,5 hPa 0,0 l/m 14,6 km/h (3 Bft) W 279 0 min 0,000 mm 0,0 UV-I 0 W/m 9,0 C 7,5 C 24,1 km/h (4 Bft) 95,74 %
12.09.2017 21:26 11,8 C 17,2 C 82 % 1013,5 hPa 0,0 l/m 16,1 km/h (3 Bft) W-SW 256 0 min 0,000 mm 0,0 UV-I 0 W/m 8,8 C 6,9 C 25,7 km/h (4 Bft) 96,23 %
12.09.2017 21:28 11,8 C 17,2 C 82 % 1013,5 hPa 0,0 l/m 15,8 km/h (3 Bft) W-SW 242 0 min 0,000 mm 0,0 UV-I 0 W/m 8,8 C 7,0 C 22,5 km/h (4 Bft) 100,00 %
12.09.2017 21:30 11,8 C 17,2 C 83 % 1013,5 hPa 0,0 l/m 16,8 km/h (3 Bft) SW 229 0 min 0,000 mm 0,0 UV-I 0 W/m 9,0 C 6,7 C 24,1 km/h (4 Bft) 100,00 %
12.09.2017 21:32 11,8 C 17,2 C 82 % 1013,5 hPa 0,0 l/m 17,3 km/h (3 Bft) W-SW 240 0 min 0,000 mm 0,0 UV-I 0 W/m 8,8 C 6,5 C 24,1 km/h (4 Bft) 100,00 %
12.09.2017 21:34 11,8 C 17,2 C 82 % 1013,6 hPa 0,0 l/m 16,7 km/h (3 Bft) W-SW 258 0 min 0,000 mm 0,0 UV-I 0 W/m 8,8 C 6,7 C 24,1 km/h (4 Bft) 97,37 %
12.09.2017 21:36 11,9 C 17,2 C 82 % 1013,7 hPa 0,0 l/m 17,6 km/h (3 Bft) W-SW 248 0 min 0,000 mm 0,0 UV-I 0 W/m 8,9 C 6,5 C 24,1 km/h (4 Bft) 100,00 %
12.09.2017 21:38 11,9 C 17,2 C 82 % 1013,7 hPa 0,0 l/m 15,8 km/h (3 Bft) W-SW 247 0 min 0,000 mm 0,0 UV-I 0 W/m 8,9 C 7,1 C 20,9 km/h (4 Bft) 100,00 %
12.09.2017 21:40 11,9 C 17,2 C 82 % 1013,8 hPa 0,0 l/m 15,9 km/h (3 Bft) W-SW 248 0 min 0,000 mm 0,0 UV-I 0 W/m 8,9 C 7,1 C 29,0 km/h (5 Bft) 100,00 %
12.09.2017 21:42 11,9 C 17,2 C 82 % 1013,9 hPa 0,0 l/m 14,9 km/h (3 Bft) W 273 0 min 0,000 mm 0,0 UV-I 0 W/m 8,9 C 7,5 C 24,1 km/h (4 Bft) 100,00 %
12.09.2017 21:44 11,9 C 17,2 C 82 % 1013,9 hPa 0,0 l/m 14,9 km/h (3 Bft) SW 229 0 min 0,000 mm 0,0 UV-I 0 W/m 8,9 C 7,5 C 20,9 km/h (4 Bft) 100,00 %
12.09.2017 21:46 11,9 C 17,2 C 82 % 1014,0 hPa 0,0 l/m 16,8 km/h (3 Bft) W 266 0 min 0,000 mm 0,0 UV-I 0 W/m 8,9 C 6,8 C 24,1 km/h (4 Bft) 100,00 %
12.09.2017 21:48 11,9 C 17,2 C 82 % 1014,0 hPa 0,0 l/m 14,3 km/h (3 Bft) W-SW 243 0 min 0,000 mm 0,0 UV-I 0 W/m 8,9 C 7,7 C 20,9 km/h (4 Bft) 100,00 %
12.09.2017 21:50 11,9 C 17,2 C 82 % 1014,1 hPa 0,0 l/m 16,2 km/h (3 Bft) SW 217 0 min 0,000 mm 0,0 UV-I 0 W/m 8,9 C 7,0 C 20,9 km/h (4 Bft) 100,00 %
12.09.2017 21:52 11,9 C 17,2 C 82 % 1014,1 hPa 0,0 l/m 13,0 km/h (3 Bft) SW 229 0 min 0,000 mm 0,0 UV-I 0 W/m 8,9 C 8,3 C 19,3 km/h (3 Bft) 100,00 %
12.09.2017 21:54 11,9 C 17,2 C 82 % 1014,1 hPa 0,0 l/m 17,0 km/h (3 Bft) W-SW 246 0 min 0,000 mm 0,0 UV-I 0 W/m 8,9 C 6,7 C 24,1 km/h (4 Bft) 100,00 %
12.09.2017 21:56 11,9 C 17,2 C 82 % 1014,1 hPa 0,0 l/m 14,6 km/h (3 Bft) SW 234 0 min 0,000 mm 0,0 UV-I 0 W/m 8,9 C 7,6 C 25,7 km/h (4 Bft) 96,00 %
12.09.2017 21:58 12,0 C 17,2 C 82 % 1014,1 hPa 0,0 l/m 11,8 km/h (2 Bft) W-SW 256 0 min 0,000 mm 0,0 UV-I 0 W/m 9,0 C 8,9 C 17,7 km/h (3 Bft) 100,00 %
12.09.2017 22:00 11,9 C 17,2 C 82 % 1014,1 hPa 0,0 l/m 13,8 km/h (3 Bft) W-SW 241 0 min 0,000 mm 0,0 UV-I 0 W/m 8,9 C 7,9 C 20,9 km/h (4 Bft) 100,00 %
12.09.2017 22:02 12,0 C 17,2 C 82 % 1014,2 hPa 0,0 l/m 14,6 km/h (3 Bft) SW 215 0 min 0,026 mm 0,0 UV-I 0 W/m 9,0 C 7,7 C 25,7 km/h (4 Bft) 98,21 %
12.09.2017 22:04 12,0 C 17,2 C 82 % 1014,2 hPa 0,0 l/m 12,8 km/h (3 Bft) SW 229 0 min 0,000 mm 0,0 UV-I 0 W/m 9,0 C 8,5 C 20,9 km/h (4 Bft) 100,00 %
12.09.2017 22:06 12,0 C 17,2 C 82 % 1014,2 hPa 0,0 l/m 15,6 km/h (3 Bft) S-SW 213 0 min 0,000 mm 0,0 UV-I 0 W/m 9,0 C 7,3 C 24,1 km/h (4 Bft) 97,73 %
12.09.2017 22:08 12,0 C 17,2 C 81 % 1014,2 hPa 0,0 l/m 14,6 km/h (3 Bft) SW 215 0 min 0,000 mm 0,0 UV-I 0 W/m 8,8 C 7,7 C 22,5 km/h (4 Bft) 100,00 %
12.09.2017 22:10 12,1 C 17,2 C 81 % 1014,2 hPa 0,0 l/m 16,5 km/h (3 Bft) W-SW 241 0 min 0,000 mm 0,0 UV-I 0 W/m 8,9 C 7,1 C 25,7 km/h (4 Bft) 100,00 %
12.09.2017 22:12 12,1 C 17,2 C 81 % 1014,3 hPa 0,0 l/m 12,9 km/h (3 Bft) W-SW 238 0 min 0,000 mm 0,0 UV-I 0 W/m 8,9 C 8,5 C 19,3 km/h (3 Bft) 100,00 %
12.09.2017 22:14 12,1 C 17,2 C 81 % 1014,4 hPa 0,0 l/m 12,9 km/h (3 Bft) SW 227 0 min 0,000 mm 0,0 UV-I 0 W/m 8,9 C 8,5 C 19,3 km/h (3 Bft) 100,00 %
12.09.2017 22:16 12,1 C 17,2 C 81 % 1014,3 hPa 0,0 l/m 12,6 km/h (3 Bft) SW 229 0 min 0,000 mm 0,0 UV-I 0 W/m 8,9 C 8,7 C 20,9 km/h (4 Bft) 100,00 %
12.09.2017 22:18 12,1 C 17,2 C 81 % 1014,3 hPa 0,0 l/m 12,9 km/h (3 Bft) SW 235 0 min 0,000 mm 0,0 UV-I 0 W/m 8,9 C 8,5 C 19,3 km/h (3 Bft) 100,00 %
12.09.2017 22:20 12,1 C 17,2 C 81 % 1014,2 hPa 0,0 l/m 13,7 km/h (3 Bft) W-SW 244 0 min 0,000 mm 0,0 UV-I 0 W/m 8,9 C 8,2 C 24,1 km/h (4 Bft) 100,00 %
12.09.2017 22:22 12,1 C 17,2 C 81 % 1014,3 hPa 0,0 l/m 17,2 km/h (3 Bft) W-SW 251 0 min 0,000 mm 0,0 UV-I 0 W/m 8,9 C 6,9 C 29,0 km/h (5 Bft) 100,00 %
12.09.2017 22:24 12,1 C 17,2 C 81 % 1014,2 hPa 0,0 l/m 16,2 km/h (3 Bft) S-SW 212 0 min 0,000 mm 0,0 UV-I 0 W/m 8,9 C 7,2 C 25,7 km/h (4 Bft) 100,00 %
12.09.2017 22:26 12,1 C 17,2 C 81 % 1014,3 hPa 0,0 l/m 14,2 km/h (3 Bft) W-SW 237 0 min 0,000 mm 0,0 UV-I 0 W/m 8,9 C 8,0 C 24,1 km/h (4 Bft) 100,00 %
12.09.2017 22:28 12,2 C 17,2 C 81 % 1014,3 hPa 0,0 l/m 12,4 km/h (3 Bft) W 259 0 min 0,000 mm 0,0 UV-I 0 W/m 9,0 C 8,9 C 19,3 km/h (3 Bft) 100,00 %
12.09.2017 22:30 12,2 C 17,2 C 81 % 1014,3 hPa 0,0 l/m 15,2 km/h (3 Bft) W-SW 238 0 min 0,000 mm 0,0 UV-I 0 W/m 9,0 C 7,7 C 20,9 km/h (4 Bft) 100,00 %
12.09.2017 22:32 12,2 C 17,2 C 81 % 1014,4 hPa 0,0 l/m 14,7 km/h (3 Bft) W-SW 243 0 min 0,000 mm 0,0 UV-I 0 W/m 9,0 C 7,9 C 22,5 km/h (4 Bft) 100,00 %
12.09.2017 22:34 12,2 C 17,2 C 81 % 1014,4 hPa 0,0 l/m 14,2 km/h (3 Bft) SW 219 0 min 0,000 mm 0,0 UV-I 0 W/m 9,0 C 8,1 C 25,7 km/h (4 Bft) 100,00 %
12.09.2017 22:36 12,2 C 17,2 C 81 % 1014,4 hPa 0,0 l/m 12,8 km/h (3 Bft) W-SW 254 0 min 0,000 mm 0,0 UV-I 0 W/m 9,0 C 8,7 C 19,3 km/h (3 Bft) 100,00 %
12.09.2017 22:38 12,2 C 17,2 C 81 % 1014,4 hPa 0,0 l/m 17,0 km/h (3 Bft) SW 215 0 min 0,000 mm 0,0 UV-I 0 W/m 9,0 C 7,1 C 24,1 km/h (4 Bft) 100,00 %
12.09.2017 22:40 12,2 C 17,2 C 81 % 1014,4 hPa 0,0 l/m 14,7 km/h (3 Bft) SW 223 0 min 0,000 mm 0,0 UV-I 0 W/m 9,0 C 7,9 C 24,1 km/h (4 Bft) 98,46 %
12.09.2017 22:42 12,2 C 17,2 C 81 % 1014,4 hPa 0,0 l/m 14,0 km/h (3 Bft) W-SW 257 0 min 0,000 mm 0,0 UV-I 0 W/m 9,0 C 8,2 C 22,5 km/h (4 Bft) 100,00 %
12.09.2017 22:44 12,2 C 17,2 C 81 % 1014,4 hPa 0,0 l/m 13,3 km/h (3 Bft) SW 214 0 min 0,000 mm 0,0 UV-I 0 W/m 9,0 C 8,5 C 20,9 km/h (4 Bft) 100,00 %
12.09.2017 22:46 12,2 C 17,2 C 81 % 1014,4 hPa 0,0 l/m 17,1 km/h (3 Bft) SW 216 0 min 0,000 mm 0,0 UV-I 0 W/m 9,0 C 7,0 C 27,4 km/h (4 Bft) 95,45 %
12.09.2017 22:48 12,2 C 17,2 C 81 % 1014,5 hPa 0,0 l/m 13,6 km/h (3 Bft) S-SW 211 0 min 0,000 mm 0,0 UV-I 0 W/m 9,0 C 8,4 C 24,1 km/h (4 Bft) 97,83 %
12.09.2017 22:50 12,2 C 17,2 C 81 % 1014,5 hPa 0,0 l/m 15,6 km/h (3 Bft) W-SW 240 0 min 0,000 mm 0,0 UV-I 0 W/m 9,0 C 7,6 C 22,5 km/h (4 Bft) 97,56 %
12.09.2017 22:52 12,2 C 17,2 C 81 % 1014,6 hPa 0,0 l/m 17,6 km/h (3 Bft) S-SW 211 0 min 0,000 mm 0,0 UV-I 0 W/m 9,0 C 6,9 C 25,7 km/h (4 Bft) 94,64 %
12.09.2017 22:54 12,2 C 17,2 C 81 % 1014,6 hPa 0,0 l/m 13,2 km/h (3 Bft) SW 220 0 min 0,000 mm 0,0 UV-I 0 W/m 9,0 C 8,5 C 24,1 km/h (4 Bft) 97,56 %
12.09.2017 22:56 12,2 C 17,2 C 81 % 1014,6 hPa 0,0 l/m 17,5 km/h (3 Bft) SW 236 0 min 0,000 mm 0,0 UV-I 0 W/m 9,0 C 6,9 C 27,4 km/h (4 Bft) 97,87 %
12.09.2017 22:58 12,2 C 17,2 C 81 % 1014,6 hPa 0,0 l/m 13,5 km/h (3 Bft) S 175 0 min 0,000 mm 0,0 UV-I 0 W/m 9,0 C 8,4 C 19,3 km/h (3 Bft) 98,11 %
12.09.2017 23:00 12,2 C 17,2 C 81 % 1014,7 hPa 0,0 l/m 17,7 km/h (3 Bft) SW 223 0 min 0,000 mm 0,0 UV-I 0 W/m 9,0 C 6,8 C 29,0 km/h (5 Bft) 97,37 %
12.09.2017 23:02 12,2 C 17,2 C 81 % 1014,7 hPa 0,0 l/m 14,8 km/h (3 Bft) SW 231 0 min 0,025 mm 0,0 UV-I 0 W/m 9,0 C 7,9 C 25,7 km/h (4 Bft) 98,00 %
12.09.2017 23:04 12,2 C 17,2 C 81 % 1014,8 hPa 0,0 l/m 14,8 km/h (3 Bft) W-SW 240 0 min 0,000 mm 0,0 UV-I 0 W/m 9,0 C 7,9 C 24,1 km/h (4 Bft) 97,62 %
12.09.2017 23:06 12,2 C 17,2 C 81 % 1014,8 hPa 0,0 l/m 16,4 km/h (3 Bft) W-SW 247 0 min 0,000 mm 0,0 UV-I 0 W/m 9,0 C 7,3 C 20,9 km/h (4 Bft) 96,36 %
12.09.2017 23:08 12,2 C 17,2 C 81 % 1014,8 hPa 0,0 l/m 11,8 km/h (2 Bft) S-SW 205 0 min 0,000 mm 0,0 UV-I 0 W/m 9,0 C 9,1 C 17,7 km/h (3 Bft) 97,96 %
12.09.2017 23:10 12,2 C 17,2 C 81 % 1014,8 hPa 0,0 l/m 13,2 km/h (3 Bft) SW 232 0 min 0,000 mm 0,0 UV-I 0 W/m 9,0 C 8,5 C 22,5 km/h (4 Bft) 97,44 %
12.09.2017 23:12 12,2 C 17,2 C 80 % 1014,9 hPa 0,0 l/m 16,1 km/h (3 Bft) S-SW 212 0 min 0,000 mm 0,0 UV-I 0 W/m 8,9 C 7,4 C 25,7 km/h (4 Bft) 97,87 %
12.09.2017 23:14 12,2 C 17,2 C 80 % 1014,9 hPa 0,0 l/m 13,8 km/h (3 Bft) W-SW 237 0 min 0,000 mm 0,0 UV-I 0 W/m 8,9 C 8,3 C 22,5 km/h (4 Bft) 98,11 %
12.09.2017 23:16 12,2 C 17,2 C 81 % 1014,9 hPa 0,0 l/m 13,3 km/h (3 Bft) W-SW 258 0 min 0,000 mm 0,0 UV-I 0 W/m 9,0 C 8,5 C 25,7 km/h (4 Bft) 97,56 %
12.09.2017 23:18 12,2 C 17,2 C 80 % 1014,9 hPa 0,0 l/m 16,4 km/h (3 Bft) W-SW 257 0 min 0,000 mm 0,0 UV-I 0 W/m 8,9 C 7,3 C 24,1 km/h (4 Bft) 96,23 %
12.09.2017 23:20 12,2 C 17,2 C 80 % 1015,0 hPa 0,0 l/m 15,9 km/h (3 Bft) W-SW 246 0 min 0,000 mm 0,0 UV-I 0 W/m 8,9 C 7,5 C 22,5 km/h (4 Bft) 100,00 %
12.09.2017 23:22 12,2 C 17,2 C 80 % 1015,0 hPa 0,0 l/m 16,5 km/h (3 Bft) S-SW 202 0 min 0,000 mm 0,0 UV-I 0 W/m 8,9 C 7,3 C 22,5 km/h (4 Bft) 98,11 %
12.09.2017 23:24 12,2 C 17,2 C 80 % 1015,0 hPa 0,0 l/m 19,2 km/h (3 Bft) SW 226 0 min 0,000 mm 0,0 UV-I 0 W/m 8,9 C 6,4 C 24,1 km/h (4 Bft) 100,00 %
12.09.2017 23:26 12,2 C 17,2 C 80 % 1015,0 hPa 0,0 l/m 15,8 km/h (3 Bft) SW 225 0 min 0,000 mm 0,0 UV-I 0 W/m 8,9 C 7,5 C 22,5 km/h (4 Bft) 100,00 %
12.09.2017 23:28 12,2 C 17,2 C 80 % 1015,0 hPa 0,0 l/m 15,6 km/h (3 Bft) SW 231 0 min 0,000 mm 0,0 UV-I 0 W/m 8,9 C 7,6 C 24,1 km/h (4 Bft) 98,11 %
12.09.2017 23:30 12,2 C 17,2 C 80 % 1015,0 hPa 0,0 l/m 12,4 km/h (3 Bft) W 268 0 min 0,000 mm 0,0 UV-I 0 W/m 8,9 C 8,9 C 16,1 km/h (3 Bft) 97,56 %
12.09.2017 23:32 12,1 C 17,2 C 81 % 1015,1 hPa 0,0 l/m 14,1 km/h (3 Bft) W 267 0 min 0,000 mm 0,0 UV-I 0 W/m 8,9 C 8,0 C 19,3 km/h (3 Bft) 97,87 %
12.09.2017 23:34 12,1 C 17,2 C 81 % 1015,1 hPa 0,0 l/m 14,7 km/h (3 Bft) SW 215 0 min 0,000 mm 0,0 UV-I 0 W/m 8,9 C 7,8 C 20,9 km/h (4 Bft) 97,56 %
12.09.2017 23:36 12,0 C 17,2 C 81 % 1015,1 hPa 0,0 l/m 12,2 km/h (2 Bft) S-SW 199 0 min 0,000 mm 0,0 UV-I 0 W/m 8,8 C 8,7 C 19,3 km/h (3 Bft) 98,11 %
12.09.2017 23:38 12,0 C 17,2 C 81 % 1015,1 hPa 0,0 l/m 13,8 km/h (3 Bft) SW 217 0 min 0,000 mm 0,0 UV-I 0 W/m 8,8 C 8,0 C 20,9 km/h (4 Bft) 98,00 %
12.09.2017 23:40 11,9 C 17,2 C 81 % 1015,1 hPa 0,0 l/m 13,6 km/h (3 Bft) SW 215 0 min 0,000 mm 0,0 UV-I 0 W/m 8,7 C 8,0 C 20,9 km/h (4 Bft) 94,87 %
12.09.2017 23:42 11,9 C 17,2 C 81 % 1015,1 hPa 0,0 l/m 15,4 km/h (3 Bft) SW 234 0 min 0,000 mm 0,0 UV-I 0 W/m 8,7 C 7,3 C 24,1 km/h (4 Bft) 96,36 %
12.09.2017 23:44 11,9 C 17,2 C 81 % 1015,2 hPa 0,0 l/m 12,9 km/h (3 Bft) SW 229 0 min 0,000 mm 0,0 UV-I 0 W/m 8,7 C 8,3 C 20,9 km/h (4 Bft) 97,62 %
12.09.2017 23:46 11,8 C 17,2 C 81 % 1015,1 hPa 0,0 l/m 12,9 km/h (3 Bft) W-SW 239 0 min 0,000 mm 0,0 UV-I 0 W/m 8,6 C 8,2 C 19,3 km/h (3 Bft) 97,56 %
12.09.2017 23:48 11,8 C 17,2 C 81 % 1015,2 hPa 0,0 l/m 14,5 km/h (3 Bft) S-SW 207 0 min 0,000 mm 0,0 UV-I 0 W/m 8,6 C 7,5 C 20,9 km/h (4 Bft) 96,61 %
12.09.2017 23:50 11,8 C 17,2 C 81 % 1015,1 hPa 0,0 l/m 11,7 km/h (2 Bft) SW 230 0 min 0,000 mm 0,0 UV-I 0 W/m 8,6 C 8,7 C 16,1 km/h (3 Bft) 97,56 %
12.09.2017 23:52 11,8 C 17,2 C 81 % 1015,1 hPa 0,0 l/m 12,9 km/h (3 Bft) S-SW 207 0 min 0,000 mm 0,0 UV-I 0 W/m 8,6 C 8,2 C 24,1 km/h (4 Bft) 98,00 %
12.09.2017 23:54 11,7 C 17,2 C 82 % 1015,1 hPa 0,0 l/m 15,2 km/h (3 Bft) S-SW 206 0 min 0,000 mm 0,0 UV-I 0 W/m 8,7 C 7,1 C 24,1 km/h (4 Bft) 96,00 %
12.09.2017 23:56 11,7 C 17,2 C 82 % 1015,1 hPa 0,0 l/m 13,2 km/h (3 Bft) SW 236 0 min 0,000 mm 0,0 UV-I 0 W/m 8,7 C 7,9 C 17,7 km/h (3 Bft) 98,00 %
12.09.2017 23:58 11,7 C 17,2 C 82 % 1015,1 hPa 0,0 l/m 13,2 km/h (3 Bft) SW 236 0 min 0,000 mm 0,0 UV-I 0 W/m 8,7 C 7,9 C 19,3 km/h (3 Bft) 97,56 %
_ Min-Zeit 20:10 12:08 11:26 00:00 - 01:00 - - - - - - 23:46 15:52 01:00 00:05
Minimum _ 11,6 C 17,2 C 77 % 1006,7 hPa - 0,0 km/h (0 Bft) - - - - - - 8,6 C 6,3 C 1,6 km/h (1 Bft) 50,88 %
_ Max-Zeit 13:40 00:00 12:22 23:44 11:40 15:06 - - 13:34 15:00 13:36 13:36 12:44 10:40 15:06 00:00
Maximum _ 14,5 C 18,3 C 92 % 1015,2 hPa 0,4 l/m 23,1 km/h
W-SW (4 Bft)
- - 2 min 0,178 mm 2,6 UV-I 516 W/m 12,4 C 13,9 C 38,6 km/h
W-SW (5 Bft)
100,00 %
Durchschnitt _ 12,7 C 17,7 C 84 % 1009,5 hPa #2,8 l/m 9,0 km/h (2 Bft) SW - #36 min. #1,219 mm 1,0 UV-I 129 W/m 10,1 C 11,0 C 14,2 km/h (3 Bft) 97,92 %